     2              OBSERVATION DATA    GPS                 RINEX VERSION / TYPE
teqc 2000Feb29 20021016 17:28:53UTC                         PGM / RUN BY / DATE
                                                            COMMENT
L2: 1 -> 1; 5 -> 5; 60 -> 9                                 COMMENT
L2: 1 -> 1; 5 -> 5; 60 -> 9                                 COMMENT
L2: 1 -> 1; 5 -> 5; 60 -> 9                                 COMMENT
L2: 1 -> 1; 5 -> 5; 60 -> 9                                 COMMENT
L2: 1 -> 1; 5 -> 5; 60 -> 9                                 COMMENT
Original Marker Name: ABUT                                  COMMENT
Campaign Name: Yolo County Subsidence 2002                  COMMENT
4-Character Station Name: ABUT                              COMMENT
6-Character Antenna Code: TRMCMP                            COMMENT
Vertical Measurement Point: BPA                             COMMENT
Vertical Offset to Rinex Ref. Point: 0.0000                 COMMENT
Radial Measurement Point: RRP                               COMMENT
Radial Offset to Rinex Ref. Point: 0.0000                   COMMENT
Antenna Height from Field Measurement: 2.0000 m             COMMENT
Additional Antenna Identification Info.:                    COMMENT
Model 22020.00+GP                                           COMMENT
Original XYZ: -2640078.7305 -4232918.8505 3960756.2598      COMMENT
New XYZ position is based on association with SCEC monument COMMENT
E1F8X8D9+0011. Position of that monument is believed to be  COMMENT
valid to within 1 m horizontally; vertical accuracy         COMMENT
should be no worse than 3-times this value.                 COMMENT
                                                            COMMENT
Revised Rinex header created by UCSD GPS archive for        COMMENT
GSAC on 27-Jun-2003 (2003:178) 16:24:47 GMT                 COMMENT
For assistance contact dagnew@ucsd.edu                      COMMENT
or anderson@python.ucsd.edu                                 COMMENT
                                                            COMMENT
ABUT 1999                                                   MARKER NAME
ABUT                                                        MARKER NUMBER
-Unknown- YOLO_COUNTY                                       OBSERVER / AGENCY
3912 TRIMBLE 4000 SSI NP 7.29; SP 3.07                      REC # / TYPE / VERS
0220059298 TR GEOD L1/L2 GP                                 ANT # / TYPE
 -2640079.5393 -4232917.7781  3960753.2558                  APPROX POSITION XYZ
        2.0000        0.0000        0.0000                  ANTENNA: DELTA H/E/N
     1     1     0                                          WAVELENGTH FACT L1/2
     7    C1    L1    L2    P1    P2    S1    S2            # / TYPES OF OBSERV
     0                                                      INTERVAL
  2002     7    15    20    26   30.000000                  TIME OF FIRST OBS
  2002     7    15    21    14    0.000000                  TIME OF LAST OBS
                                                            END OF HEADER
 02  7 15 20 26 30.0000000  0  6G 3G31G11G14G21G25
  24371751.4384      63619.68955
        10.5004
  23293800.5394      16494.31456
        14.5004
  23027972.5704     -17730.48756
        18.5004
  20584482.6414      25019.69657
        25.7504
  21940336.4144      28105.98157
        24.2504
  22898770.8444     -19424.20956
        18.0004
 02  7 15 20 26 45.0000000  0  6G 3G31G11G14G21G25
  24383969.6954     127828.35745
        10.5004
  23303299.2664      66411.28646
        14.5004
  23023472.4614     -41378.69446
        18.5004
  20591086.7194      59723.99147
        26.2504
  21947732.4844      66972.67447
        24.2504
  22893829.2194     -45392.87246
        18.2504
 02  7 15 20 27  0.0000000  0  6G 3G31G11G14G21G25
  24396286.4144     192551.94945
        10.7504
  23312912.2504     116925.92846
        14.2504
  23019082.0704     -64448.89746     -5943.29656                  23019089.3754
        19.2504         15.5004
  20597807.3284      95041.42847      5537.91957                  20597812.7544
        26.2504         27.5004
  21955234.6644     106396.62547     10283.20756                  21955243.1414
        24.5004         23.0004
  22888995.1094     -70795.79346     -1305.96856                  22889004.4534
        18.7504         16.7504
 02  7 15 20 27 15.0000000  0  6G 3G31G11G14G21G25
  24408690.0864     257733.38845     10180.59855                  24408703.9414
        11.5004         10.5004
  23322627.4304     167981.19246     23914.54756                  23322637.8404
        14.2504         14.2504
  23014791.0944     -86997.34446    -23513.47646                  23014798.3404
        18.7504         15.5004
  20604633.7424     130915.09147     33491.43447                  20604639.0394
        26.5004         27.7504
  21962831.9454     146321.18047     41393.25146                  21962840.1294
        24.7504         22.7504
  22884258.2424     -95689.43546    -20703.50946                  22884267.5744
        19.2504         17.5004
 02  7 15 20 27 30.0000000  0  6G 3G31G11G14G21G25
  24421172.8284     323332.36245     61296.60945                  24421186.3914
        11.0004         10.2504
  23332438.6174     219536.69846     64087.61646                  23332449.0984
        14.0004         14.2504
  23010592.1334    -109063.76346    -40708.05346                  23010599.5904
        18.0004         15.2504
  20611558.5944     167304.65647     61846.93347                  20611564.0434
        26.7504         27.7504
  21970517.1024     186706.50947     72862.32646                  21970525.2274
        24.5004         22.2504
  22879610.2894    -120113.36246    -39735.06046                  22879619.9734
        19.5004         17.2504
 02  7 15 20 27 45.0000000  0  6G 3G31G11G14G21G25
  24433729.1414     389313.47945    112710.36045                  24433743.4774
        11.0004         10.7504
  23342337.5234     271557.13046    104622.98446                  23342347.3134
        14.0004         14.5004
  23006478.1024    -130682.91146    -57554.08646                  23006485.5354
        18.7504         15.5004
  20618574.7344     204174.87047     90576.96947                  20618580.2304
        26.5004         28.0004
  21978283.3054     227517.35547    104662.98246                  21978291.5704
        23.7504         22.2504
  22875045.0784    -144102.29546    -58427.63646                  22875054.1294
        19.2504         17.5004
 02  7 15 20 28  0.0000000  0  6G 3G31G11G14G21G25
  24446353.0554     455650.68345    164401.59145                  24446367.6374
        10.5004         10.0004
  23352320.3364     324016.36646    145500.26546                  23352330.2424
        14.2504         14.5004
  23002444.1414    -151880.22346    -74071.42746                  23002451.2584
        18.7504         15.5004
  20625677.6564     241499.79547    119661.32847                  20625683.0474
        26.7504         28.2504
  21986125.2664     268728.37347    136775.46346                  21986133.4494
        24.2504         22.7504
  22870558.3364    -167681.44446    -76800.90746                  22870567.5394
        19.2504         17.5004
 02  7 15 20 28 15.0000000  0  6G 3G31G11G14G21G25
  24459039.1804     522318.90245    216350.78345                  24459053.6214
        10.5004          9.7504
  23362381.8284     376889.28846    186699.91946                  23362391.9224
        14.2504         14.2504
  22998486.2664    -172680.09846    -90279.06146                  22998493.7934
        18.7504         16.0004
  20632862.0314     279254.61047    149080.66547                  20632867.4224
        27.0004         28.2504
  21994038.8594     310314.57647    169180.29546                  21994047.2544
        24.7504         22.7504
  22866144.1954    -190875.16746    -94873.84346                  22866153.5744
        18.7504         17.5004
 02  7 15 20 28 30.0000000  0  5G31G11G14G21G25
  23372516.9774     430148.90846    228200.87646                  23372527.0124
        14.2504         14.2504
  22994598.7344    -193108.98746   -106197.63346                  22994606.2624
        19.0004         16.2504
  20640123.1724     317412.32747    178813.94947                  20640128.5394
        27.2504         28.2504
  22002019.0164     352249.40547    201856.78046                  22002027.5634
        25.0004         23.0004
  22861798.8834    -213709.94446   -112667.07246                  22861807.8284
        18.7504         17.2504
 02  7 15 20 28 45.0000000  0  5G31G11G14G21G25
  23382721.3524     483774.19146    269986.77646                  23382731.1294
        14.2504         14.0004
  22990778.0314    -213187.30446   -121843.01646                  22990785.4884
        19.7504         16.7504
  20647456.8984     355951.99847    208844.86447                  20647462.2074
        26.7504         28.0004
  22010061.2274     394512.30947    234788.90346                  22010069.8094
        24.2504         22.5004
  22857518.1254    -236206.17046   -130196.52546                  22857527.3404
        18.7504         17.5004
 02  7 15 20 29  0.0000000  0  5G31G11G14G21G25
  23392991.1094     537744.01846    312041.14546                  23393001.0274
        14.5004         14.5004
  22987019.8834    -232935.51146   -137231.18646                  22987027.2814
        19.2504         16.5004
  20654859.5314     394852.67847    239157.07447                  20654864.9344
        27.0004         28.2504
  22018162.0784     437082.13747    267960.18846                  22018170.5554
        24.5004         22.5004
  22853297.6484    -258384.26546   -147478.05546                  22853306.9804
        18.5004         17.2504
 02  7 15 20 29 15.0000000  0  5G31G11G14G21G25
  23403325.8204     592051.32946    354358.48546                  23403335.8674
        14.2504         14.5004
  22983323.5474    -252360.01046   -152367.10946                  22983330.8404
        18.7504         16.0004
  20662329.6254     434107.41247    269745.17647                  20662335.0164
        27.2504         28.5004
  22026320.0314     479952.65947    301365.78346                  22026328.5314
        23.7504         22.2504
  22849136.4774    -280250.55746   -164516.65346                  22849145.7854
        18.5004         17.5004
 02  7 15 20 29 30.0000000  0  5G31G11G14G21G25
  23413721.0704     646677.88046    396924.58346                  23413731.4104
        14.5004         14.5004
  22979685.4534    -271478.36146   -167264.46846                  22979692.6764
        19.2504         15.7504
  20669863.2274     473698.02247    300595.00147                  20669868.5944
        27.0004         28.5004
  22034531.7584     523106.02147    334991.76946                  22034539.8244
        24.0004         22.0004
  22845031.4614    -301822.56946   -181325.92246                  22845040.5704
        18.7504         17.7504
 02  7 15 20 29 45.0000000  0  5G31G11G14G21G25
  23424173.8674     701607.69746    439726.98546                  23424183.9024
        14.7504         14.7504
  22976102.5944    -290305.79846   -181935.15546                  22976110.1214
        18.7504         15.7504
  20677458.1414     513608.76947    331694.27547                  20677463.6374
        27.2504         28.5004
  22042794.6804     566526.55947    368825.94646                  22042802.6174
        24.5004         22.0004
  22840979.4614    -323115.53846   -197917.75446                  22840988.7234
        19.2504         17.5004
 02  7 15 20 30  0.0000000  0  5G31G11G14G21G25
  23434682.9844     756831.99346    482758.86846                  23434692.6214
        14.5004         14.5004
  22972573.8674    -308850.48046   -196385.51446                  22972581.0784
        18.7504         16.0004
  20685112.0944     553831.01947    363036.28547                  20685117.5664
        27.2504         28.5004
  22051106.6334     610205.80447    402861.71646                  22051114.5594
        24.7504         22.2504
  22836979.0234    -344137.64546   -214298.53346                  22836988.4144
        18.7504         18.0004
 02  7 15 20 30 15.0000000  0  5G31G11G14G21G25
  23445245.3054     812339.07146    526011.09846                  23445255.7624
        14.0004         14.2504
  22969096.4064    -327123.53946   -210624.20946                  22969103.3834
        19.2504         16.2504
  20692823.2734     594353.09447    394611.92847                  20692828.7234
        27.0004         28.7504
  22059465.5084     654132.61747    437090.39146                  22059473.6454
        24.5004         22.5004
  22833027.6024    -364899.80246   -230476.75046                  22833036.8634
        19.2504         18.2504
 02  7 15 20 30 30.0000000  0  5G31G11G14G21G25
  23455860.9454     868124.52846    569480.22446                  23455871.5434
        13.2504         13.7504
  22965670.0944    -345128.73446   -224654.18946                  22965677.4574
        19.7504         16.2504
  20700590.5944     635170.75347    426417.89247                  20700596.1604
        27.2504         28.5004
  22067870.7274     698302.95447    471508.82946                  22067879.2734
        24.2504         22.2504
  22829125.8204    -385405.83846   -246455.38646                  22829134.9774
        18.7504         18.0004
 02  7 15 20 30 45.0000000  0  5G31G11G14G21G25
  23466527.7734     924179.38046    613159.28846                  23466538.4884
        13.2504         13.5004
  22962293.3754    -362874.21247   -238481.78746                  22962301.0554
        20.0004         16.7504
  20708412.4304     676275.30347    458447.40847                  20708417.9844
        27.5004         28.5004
  22076320.7814     742708.31247    506110.39046                  22076329.4694
        24.2504         22.5004
  22825270.6174    -405663.89446   -262240.79946                  22825279.8204
        18.7504         18.0004
 02  7 15 20 31  0.0000000  0  5G31G11G14G21G25
  23477243.8984     980491.50546    657038.82146                  23477254.8244
        13.0004         13.7504
  22958963.5864    -380371.56146   -252116.04646                  22958971.3014
        19.0004         16.7504
  20716286.8594     717654.59847    490691.01247                  20716292.5664
        27.2504         28.7504
  22084813.4224     787336.93947    540885.93746                  22084822.1914
        24.5004         22.5004
  22821460.6414    -425685.57846   -277842.02046                  22821469.9024
        19.0004         17.7504
 02  7 15 20 31 15.0000000  0  5G31G11G14G21G25
  23488008.7424    1037060.65846    701118.62846                  23488019.2234
        13.0004         13.2504
  22955681.1724    -397620.45946   -265556.68946                  22955689.0164
        19.2504         16.5004
  20724213.1414     759308.53947    523148.62947                  20724218.5784
        27.5004         28.7504
  22093348.4064     832189.00747    575835.59546                  22093356.7074
        24.7504         22.2504
  22817695.6024    -445470.35846   -293258.65046                  22817704.9694
        18.5004         18.0004
 02  7 15 20 31 30.0000000  0  5G31G11G14G21G25
  23498819.5864    1093875.22746    745389.67546                  23498829.9964
        13.2504         13.5004
  22952444.0634    -414631.70246   -278812.15246                  22952452.2814
        18.7504         16.5004
  20732189.7114     801225.68547    555811.33847                  20732195.3134
        27.5004         28.5004
  22101924.0314     877253.28047    610950.60646                  22101932.1564
        24.2504         21.7504
  22813973.6804    -465029.02146   -308499.07946                  22813982.8134
        18.7504         18.2504
 02  7 15 20 31 45.0000000  0  5G31G11G14G21G25
  23509677.1564    1150927.64946    789846.05446                  23509687.0864
        14.0004         13.7504
  22949250.4614    -431412.38346   -291887.94746                  22949258.1884
        19.2504         16.5004
  20740215.0164     843398.45247    588673.23247                  20740220.4654
        27.2504         28.7504
  22110538.4144     922522.44447    646225.27946                  22110546.5984
        24.5004         22.0004
  22810293.5164    -484368.70846   -323568.87746                  22810302.6604
        19.0004         18.2504
 02  7 15 20 32  0.0000000  0  5G31G11G14G21G25
  23520578.8364    1208216.26246    834486.48846                  23520589.6454
        13.2504         13.7504
  22946101.1334    -447963.37247   -304784.79246                  22946109.1524
        20.0004         16.5004
  20748288.6804     885825.49047    621733.25747                  20748294.0594
        27.7504         28.5004
  22119191.6174     967995.33047    681658.69146                  22119199.7664
        24.2504         22.2504
  22806654.7814    -503490.24746   -338468.70046                  22806664.1024
        19.2504         18.2504
 02  7 15 20 32 15.0000000  0  5G31G11G14G21G25
  23531523.8594    1265734.35846    879305.74146                  23531534.9264
        12.7504         13.7504
  22942994.2504    -464290.72347   -317507.35846                  22943001.3554
        20.0004         16.2504
  20756409.3594     928500.18247    654986.26247                  20756414.8444
        27.7504         28.5004
  22127882.2504    1013665.65547    717245.94746                  22127890.6914
        24.2504         22.0004
  22803056.1024    -522399.59146   -353203.17446                  22803065.0594
        19.5004         18.2504
 02  7 15 20 32 30.0000000  0  5G31G11G14G21G25
  23542511.7734    1323477.20246    924300.10546                  23542522.0084
        12.7504         13.2504
  22939928.9614    -480398.55947   -330058.88846                  22939936.3364
        20.0004         16.7504
  20764576.4774     971417.86747    688428.60647                  20764581.8794
        27.5004         28.7504
  22136609.9614    1059528.83847    752983.47746                  22136618.5784
        24.2504         22.2504
  22799497.4844    -541100.96546   -367775.59246                  22799506.3714
        19.5004         18.5004
 02  7 15 20 32 45.0000000  0  5G31G11G14G21G25
  23553541.9694    1381440.78746    969466.47146                  23553552.5664
        12.2504         13.5004
  22936904.9384    -496290.10647   -342441.87446                  22936911.9384
        20.0004         16.7504
  20772788.7584    1014574.72447    722057.32747                  20772794.2304
        27.2504         28.5004
  22145373.3134    1105581.60347    788868.73646                  22145381.8484
        24.2504         22.2504
  22795977.7504    -559597.44846   -382188.36346                  22795987.0354
        19.7504         18.7504
 02  7 15 20 33  0.0000000  0  5G31G11G14G21G25
  23564614.4064    1439625.77446   1014805.36646                  23564625.0164
        12.0004         13.5004
  22933922.1334    -511964.19947   -354655.40846                  22933929.0634
        20.0004         16.5004
  20781046.8914    1057971.47247    755872.97247                  20781052.3874
        27.0004         28.5004
  22154173.1884    1151824.96047    824902.51246                  22154181.4414
        24.0004         22.0004
  22792497.0864    -577887.84047   -396440.53546                  22792506.2664
        20.0004         19.0004
 02  7 15 20 33 15.0000000  0  5G31G11G14G21G25
  23575727.2734    1498025.00346   1060311.18446                  23575737.8834
        12.2504         13.2504
  22930979.3754    -527427.23046   -366704.49146                  22930986.7154
        19.7504         17.0004
  20789349.4304    1101601.22247    789870.17747                  20789355.0204
        27.2504         28.5004
  22163008.2034    1198252.15847    861079.53846                  22163016.4224
        23.7504         21.7504
  22789054.6884    -595978.46647   -410537.05446                  22789063.7854
        20.0004         18.7504
 02  7 15 20 33 30.0000000  0  5G31G11G14G21G25
  23586881.8674    1556643.19546   1105987.65646                  23586892.6174
        12.2504         13.5004
  22928078.1804    -542673.91446   -378584.97646                  22928085.8714
        19.7504         17.2504
  20797697.0784    1145468.76447    824052.67747                  20797702.5274
        27.5004         28.5004
  22171878.8204    1244868.30547    897403.80846                  22171886.9224
        23.7504         21.7504
  22785650.8524    -613864.15847   -424473.88646                  22785659.5634
        20.0004         19.0004
 02  7 15 20 33 45.0000000  0  5G31G11G14G21G25
  23598078.6024    1615481.52346   1151835.63646                  23598089.0594
        12.5004         13.0004
  22925218.2734    -557702.33846   -390295.39246                  22925225.8364
        19.7504         17.2504
  20806090.3984    1189575.38947    858421.47147                  20806095.9884
        27.2504         28.5004
  22180785.7664    1291675.16547    933876.66846                  22180793.9614
        23.5004         21.5004
  22782286.6564    -631542.82547   -438249.39746                  22782295.6844
        20.0004         19.2504
 02  7 15 20 34  0.0010000  0  5G31G11G14G21G25
  23609317.6534    1674542.92346   1197857.45846                  23609328.5324
        12.2504         12.5004
  22922399.8254    -572513.90247   -401836.82346                  22922407.0484
        21.0004         17.2504
  20814529.5214    1233923.14747    892978.16347                  20814535.0054
        27.2504         28.5004
  22189729.5994    1338675.02047    970499.92346                  22189737.5714
        24.0004         21.7504
  22778961.7554    -649015.97147   -451864.76446                  22778970.8064
        20.0004         19.2504
 02  7 15 20 34 15.0010000  0  5G31G11G14G21G25
  23620599.4814    1733827.34446   1244053.05446                  23620610.0324
        12.5004         12.2504
  22919624.5364    -587098.10847   -413201.11246                  22919631.5604
        20.2504         17.5004
  20823014.8414    1278514.18147    927724.42047                  20823020.3724
        27.7504         28.2504
  22198710.5754    1385870.15547   1007275.33346                  22198718.8064
        24.2504         22.0004
  22775677.6534    -666272.70747   -465311.50246                  22775686.9274
        20.2504         19.0004
 02  7 15 20 34 30.0010000  0  5G31G11G14G21G25
  23631923.7554    1793339.05046   1290425.74946                  23631934.6924
        12.0004         12.2504
  22916892.3804    -601454.88247   -424388.17346                  22916899.4504
        21.2504         17.0004
  20831547.0284    1323351.85547    962662.86947                  20831552.5134
        27.0004         28.5004
  22207729.4114    1433264.30447   1044205.82946                  22207737.8534
        24.2504         22.0004
  22772434.7084    -683313.18346   -478589.72146                  22772443.8884
        19.7504         19.2504
 02  7 15 20 34 45.0010000  0  5G31G11G14G21G25
  23643293.6534    1853086.57546   1336982.20346                  23643304.4034
        12.2504         13.0004
  22914205.5524    -615575.20447   -435390.98146                  22914212.3134
        21.0004         17.0004
  20840127.9354    1368444.76647    997800.20047                  20840133.4784
        27.0004         28.5004
  22216787.8494    1480866.40047   1081298.36146                  22216795.9974
        23.7504         21.7504
  22769234.9354    -700128.29847   -491692.33546                  22769244.2554
        20.0004         19.5004
 02  7 15 20 35  0.0010000  0  5G31G11G14G21G25
  23654711.1224    1913083.49546   1383733.00046                  23654721.3214
        12.5004         13.0004
  22911566.0914    -629444.67347   -446198.32946                  22911573.2204
        20.5004         17.0004
  20848760.2244    1413806.79247   1033147.23047                  20848765.8844
        27.2504         28.5004
  22225888.2004    1528690.19247   1118563.63946                  22225896.1614
        23.7504         21.7504
  22766080.6064    -716703.75847   -504608.21246                  22766089.7394
        20.0004         19.2504
 02  7 15 20 35 15.0010000  0  5G31G11G14G21G25
  23666176.9424    1973340.36946   1430686.34546                  23666187.7514
        12.2504         13.0004
  22908976.6534    -643052.21047   -456801.56746                  22908983.4854
        20.2504         17.2504
  20857445.2004    1459448.41647   1068712.13047                  20857450.7434
        27.0004         28.2504
  22235033.1614    1576746.76147   1156010.31146                  22235041.4504
        23.5004         21.5004
  22762974.1854    -733028.24747   -517328.52646                  22762983.6224
        20.0004         19.2504
 02  7 15 20 35 30.0010000  0  5G31G11G14G21G25
  23677695.5284    2033869.94245   1477852.19146                  23677706.5244
        11.7504         12.7504
  22906439.4584    -656384.35647   -467190.22146                  22906446.6464
        20.2504         17.2504
  20866186.3494    1505382.52247   1104504.94047                  20866191.9384
        27.0004         28.7504
  22244224.9504    1625049.31247   1193648.65246                  22244233.1814
        23.5004         21.5004
  22759918.2474    -749088.45047   -529842.90146                  22759927.1924
        20.5004         19.5004
 02  7 15 20 35 45.0010000  0  5G31G11G14G21G25
  23689269.0444    2094687.07046   1525242.10846                  23689280.3684
        12.5004         13.0004
  22903957.6614    -669425.53446   -477352.14346                  22903964.9894
        19.7504         17.5004
  20874985.9354    1551624.23847   1140537.44747                  20874991.5834
        27.2504         28.5004
  22253466.4504    1673613.15547   1231490.59646                  22253474.3294
        23.5004         21.5004
  22756915.0364    -764868.69847   -542139.13446                  22756924.0054
        20.2504         19.2504
 02  7 15 20 36  0.0010000  0  5G31G11G14G21G25
  23700898.7634    2155803.34445   1572865.10846                  23700909.9114
        11.7504         13.2504
  22901533.9974    -682163.39947   -487277.70346                  22901541.1264
        21.5004         17.5004
  20883846.0754    1598185.33847   1176818.82347                  20883851.7714
        27.2504         28.5004
  22262759.6464    1722450.22547   1269545.44746                  22262767.5954
        24.5004         21.5004
  22753968.0994    -780356.61747   -554207.57946                  22753977.2204
        21.0004         19.5004
 02  7 15 20 36 15.0010000  0  5G31G11G14G21G25
  23712585.7164    2217219.51146   1620721.80046                  23712596.8174
        12.2504         13.2504
  22899167.8724    -694596.66147   -496965.93546                  22899175.0954
        21.5004         17.7504
  20892767.2714    1645066.57247   1213349.65147                  20892772.8254
        27.5004         28.2504
  22272105.3334    1771561.84747   1307814.23446                  22272113.5754
        24.2504         21.5004
  22751076.7394    -795550.83647   -566047.17246                  22751085.2044
        20.5004         19.5004
 02  7 15 20 36 30.0010000  0  5G31G11G14G21G25
  23724330.8884    2278939.26946   1668815.06046                  23724341.0404
        12.7504         13.0004
  22896860.7084    -706720.93247   -506413.38046                  22896868.1534
        21.2504         17.7504
  20901750.1774    1692271.73047   1250132.89047                  20901755.7784
        27.5004         28.5004
  22281503.9814    1820952.01047   1346300.05746                  22281512.3294
        23.5004         21.2504
  22748241.9814    -810446.99247   -577654.51146                  22748250.7514
        20.7504         19.5004
 02  7 15 20 36 45.0010000  0  5G31G11G14G21G25
  23736133.0524    2340959.37946   1717142.34946                  23736143.6964
        12.7504         13.5004
  22894611.8724    -718538.80747   -515622.08246                  22894618.9074
        21.2504         17.7504
  20910794.1924    1739797.70447   1287166.11647                  20910799.7244
        27.5004         28.5004
  22290955.1224    1870617.58747   1385000.49346                  22290963.2944
        23.5004         21.0004
  22745463.2474    -825047.67247   -589031.59946                  22745472.0174
        20.5004         19.5004
 02  7 15 20 37  0.0010000  0  5G31G11G14G21G25
  23747990.3644    2403269.53646   1765695.65446                  23748001.1854
        13.2504         13.5004
  22892419.2394    -730059.85447   -524599.48946                  22892426.0714
        21.2504         17.5004
  20919897.0524    1787634.45847   1324441.50647                  20919902.4314
        27.2504         28.5004
  22300456.6304    1920549.23147   1423908.25646                  22300464.6854
        23.5004         21.0004
  22742738.9034    -839362.44547   -600185.90946                  22742747.7674
        20.5004         19.7504
 02  7 15 20 37 15.0010000  0  5G31G11G14G21G25
  23759899.2554    2465849.14246   1814458.92946                  23759910.1574
        13.2504         13.5004
  22890279.4744    -741304.13547   -533361.23446                  22890285.8024
        20.5004         17.2504
  20929055.3804    1835761.49247   1361943.08847                  20929060.9584
        26.7504         28.2504
  22310005.1534    1970726.29547   1463007.25846                  22310013.0214
        23.7504         21.2504
  22740065.6924    -853411.18747   -611132.91746                  22740074.6034
        20.2504         19.5004
 02  7 15 20 37 30.0010000  0  5G31G11G14G21G25
  23771855.9194    2528682.30846   1863419.77146                  23771866.4114
        12.7504         13.2504
  22888189.8174    -752286.81447   -541919.12946                  22888196.2164
        21.0004         17.5004
  20938266.0284    1884163.00947   1399658.55047                  20938271.7474
        27.2504         28.2504
  22319597.4504    2021133.60147   1502285.66946                  22319605.3994
        23.7504         21.0004
  22737440.1854    -867209.00547   -621884.40246                  22737448.7784
        20.0004         19.7504
 02  7 15 20 37 45.0010000  0  5G31G11G14G21G25
  23783858.0674    2591752.90246   1912565.64046                  23783868.7594
        12.5004         13.0004
  22886146.5604    -763023.37047   -550285.25446                  22886153.3804
        21.2504         17.7504
  20947525.6854    1932823.08747   1437575.49347                  20947531.3104
        27.0004         28.2504
  22329230.4504    2071755.42547   1541731.23046                  22329238.5754
        23.2504         21.2504
  22734859.3564    -880771.37047   -632452.42146                  22734868.1494
        20.2504         19.7504
 02  7 15 20 38  0.0010000  0  5G31G11G14G21G25
  23795902.3804    2655046.97846   1961885.61446                  23795912.7674
        12.2504         13.0004
  22884147.8024    -773527.20047   -558470.02746                  22884154.8134
        21.2504         17.5004
  20956831.7244    1981727.70447   1475682.98547                  20956837.4194
        26.7504         28.0004
  22338901.4974    2122577.94947   1581333.18546                  22338909.7744
        23.0004         21.2504
  22732320.5054    -894111.78847   -642847.49346                  22732329.2744
        20.5004         19.7504
 02  7 15 20 38 15.0010000  0  5G31G11G14G21G25
  23807985.9424    2718545.64746   2011365.02946                  23807997.2674
        12.5004         12.7504
  22882189.9584    -783816.37547   -566487.53646                  22882196.8534
        21.2504         17.7504
  20966180.9974    2030858.23047   1513966.50647                  20966186.7514
        26.7504         28.0004
  22348607.3024    2173582.80047   1621077.20646                  22348615.8604
        23.0004         21.0004
  22729820.8414    -907248.07847   -653083.51546                  22729829.5874
        21.2504         20.0004
 02  7 15 20 38 30.0010000  0  5G31G11G14G21G25
  23820104.6304    2782231.64446   2060990.42946                  23820115.6034
        12.2504         12.5004
  22880269.2864    -793907.43147   -574350.65846                  22880276.3924
        21.0004         17.7504
  20975570.0834    2080197.65347   1552412.80647                  20975575.6964
        26.7504         28.0004
  22358344.9034    2224753.44647   1660950.42246                  22358353.0284
        22.7504         21.0004
  22727356.4894    -920196.81047   -663173.37646                  22727365.2944
        21.0004         20.2504
 02  7 15 20 38 45.0010000  0  5G31G11G14G21G25
  23832256.8644    2846091.22746   2110751.07046                  23832267.6854
        12.5004         13.0004
  22878384.3334    -803813.52247   -582069.65146                  22878391.2864
        21.2504         17.7504
  20984995.9744    2129732.28647   1591011.22147                  20985001.5284
        27.0004         28.0004
  22368111.2394    2276076.41047   1700942.33246                  22368118.8024
        23.5004         21.0004
  22724925.6774    -932971.29147   -673127.46146                  22724934.5634
        21.5004         20.5004
 02  7 15 20 39  0.0010000  0  5G31G11G14G21G25
  23844438.7864    2910108.68746   2160634.74046                  23844449.7354
        12.7504         13.2504
  22876531.3564    -813549.80047   -589656.34146                  22876538.7784
        20.7504         17.7504
  20994456.5284    2179446.46747   1629749.54147                  20994462.2244
        26.7504         28.0004
  22377904.0604    2327536.24947   1741040.90546                  22377911.8214
        23.5004         20.7504
  22722525.2394    -945586.57547   -682957.49746                  22722534.1494
        21.7504         20.2504
 02  7 15 20 39 15.0010000  0  5G31G11G14G21G25
  23856650.9504    2974281.29346   2210639.30046                  23856661.6064
        13.0004         13.2504
  22874710.6144    -823118.14747   -597112.15446                  22874718.1184
        20.5004         17.7504
  21003950.3644    2229337.72947   1668625.84547                  21003956.1424
        26.7504         27.7504
  22387722.0674    2379130.98047   1781244.57446                  22387730.4504
        23.2504         21.2504
  22720154.4114    -958044.42247   -692664.85846                  22720162.9234
        21.7504         20.2504
 02  7 15 20 39 30.0010000  0  5G31G11G14G21G25
  23868890.7394    3038599.78746   2260757.53846                  23868901.5244
        13.2504         13.2504
  22872920.0524    -832527.27647   -604443.90746                  22872927.2284
        21.2504         17.5004
  21013476.2634    2279396.82847   1707632.93047                  21013481.9464
        27.0004         28.0004
  22397564.1384    2430851.48547   1821546.24846                  22397572.7434
        22.2504         21.0004
  22717812.2394    -970353.55247   -702256.33546                  22717820.9504
        22.0004         20.7504
 02  7 15 20 39 45.0010000  0  5G31G11G14G21G25
  23881155.8564    3103057.69646   2310984.41646                  23881167.0174
        12.5004         13.5004
  22871158.6694    -841783.04347   -611656.16446                  22871165.6104
        21.2504         18.0004
  21023032.9584    2329617.31647   1746765.77547                  21023038.7714
        26.7504         28.0004
  22407428.8104    2482691.69847   1861941.20646                  22407437.6264
        22.7504         21.0004
  22715496.8964    -982519.79647   -711736.46646                  22715505.4544
        21.5004         20.2504
 02  7 15 20 40  0.0010000  0  5G31G11G14G21G25
  23893448.4584    3167652.82546   2361318.21846                  23893460.2634
        12.5004         13.5004
  22869426.3804    -850886.70947   -618749.89646                  22869433.0604
        21.7504         17.7504
  21032619.8884    2379997.42547   1786022.99847                  21032625.6774
        26.7504         28.0004
  22417316.3104    2534649.89247   1902428.09246                  22417324.8684
        23.0004         21.2504
  22713208.5284    -994544.52647   -721106.33946                  22713217.3214
        21.2504         20.5004
 02  7 15 20 40 15.0010000  0  5G31G11G14G21G25
  23905765.4744    3232378.73146   2411753.92746                  23905776.4704
        12.5004         13.2504
  22867721.9664    -859844.21747   -625729.74146                  22867728.6344
        22.0004         17.7504
  21042236.3024    2430530.66047   1825399.54247                  21042241.7634
        27.2504         28.0004
  22427225.0524    2586719.94047   1943002.13646                  22427233.6344
        23.5004         21.2504
  22710945.8964   -1006433.66647   -730370.54546                  22710954.8764
        21.5004         20.2504
 02  7 15 20 40 30.0010000  0  5G31G11G14G21G25
  23918105.8104    3297227.83646   2462285.61646                  23918116.8534
        12.5004         12.7504
  22866043.7084    -868662.59547   -632601.17746                  22866050.3644
        22.7504         18.0004
  21051879.8174    2481209.68347   1864889.68147                  21051885.3254
        27.0004         28.0004
  22437153.5284    2638894.68547   1983657.77046                  22437161.6304
        23.7504         21.2504
  22708707.9194   -1018194.05647   -739534.43646                  22708716.6064
        21.5004         20.2504
 02  7 15 20 40 45.0010000  0  5G31G11G14G21G25
  23930469.8414    3362202.18846   2512914.92446                  23930481.4814
        12.2504         12.5004
  22864392.4664    -877339.18547   -639362.13246                  22864399.3374
        21.7504         18.0004
  21061552.3334    2532036.60747   1904495.07147                  21061557.9584
        27.0004         28.0004
  22447102.4274    2691176.74847   2024397.02346                  22447110.5754
        23.5004         21.0004
  22706495.1144   -1029822.78647   -748595.73446                  22706503.7784
        21.7504         20.5004
 02  7 15 20 41  0.0010000  0  5G31G11G14G21G25
  23942858.7714    3427306.50145   2563645.46446                  23942869.4624
        11.7504         12.2504
  22862769.5834    -885868.39247   -646008.23046                  22862777.0284
        22.2504         18.2504
  21071253.4114    2583016.22947   1944219.44547                  21071259.0604
        27.0004         28.2504
  22457072.7944    2743571.26347   2065223.89646                  22457081.1304
        23.0004         20.7504
  22704308.4504   -1041314.44247   -757550.21846                  22704317.1854
        21.5004         20.5004
 02  7 15 20 41 15.0010000  0  5G31G11G14G21G25
  23955270.2634    3492528.00345   2614467.35546                  23955281.6104
        11.7504         12.0004
  22861172.4114    -894262.30447   -652548.91146                  22861179.6814
        22.2504         18.5004
  21080980.9664    2634135.97147   1984053.00647                  21080986.5794
        27.0004         28.0004
  22467062.2394    2796065.92847   2106128.82246                  22467070.8454
        22.2504         20.7504
  22702145.1384   -1052681.27947   -766407.44846                  22702153.7204
        22.0004         20.7504
 02  7 15 20 41 30.0010000  0  5G31G11G14G21G25
  23967704.7634    3557870.15045   2665383.23346                  23967716.0754
        11.5004         12.0004
  22859601.4194    -902516.89847   -658981.03146                  22859608.3134
        22.2504         18.5004
  21090736.0284    2685399.45347   2023998.56647                  21090741.6534
        27.2504         28.0004
  22477071.5284    2848664.48347   2147114.68446                  22477079.7124
        23.0004         20.7504
  22700006.6224   -1063918.98847   -775164.06146                  22700015.0054
        22.0004         21.0004
 02  7 15 20 41 45.0010000  0  5G31G11G14G21G25
  23980160.9814    3623327.81045   2716389.14245                  23980171.8024
        11.0004         11.7504
  22858056.4034    -910636.69947   -665308.12246                  22858063.2124
        23.0004         18.2504
  21100517.5214    2736801.63247   2064052.20747                  21100523.0634
        27.0004         28.0004
  22487099.6614    2901362.35847   2188177.95646                  22487107.5994
        24.0004         21.0004
  22697892.1064   -1075032.03347   -783823.53246                  22697900.4074
        22.5004         21.0004
 02  7 15 20 42  0.0010000  0  5G31G11G14G21G25
  23992639.4424    3688904.38345   2767487.70345                  23992650.8964
        11.2504         11.7504
  22856537.8334    -918617.46847   -671526.87746                  22856544.1384
        23.2504         18.5004
  21110326.4504    2788346.10947   2104216.73147                  21110332.0874
        27.7504         28.0004
  22497147.3494    2954163.20047   2229321.44846                  22497155.4744
        23.7504         21.0004
  22695802.0364   -1086016.38047   -792382.71346                  22695810.1854
        22.7504         21.2504
 02  7 15 20 42 15.0010000  0  5G31G11G14G21G25
  24005139.5444    3754593.71645   2818674.11646                  24005150.5634
        11.5004         12.0004
  22855044.4274    -926464.69347   -677641.57246                  22855051.0014
        23.0004         18.5004
  21120160.7944    2840026.93347   2144487.49847                  21120166.3604
        27.2504         28.0004
  22507213.2084    3007061.04047   2270540.53746                  22507221.5564
        23.2504         20.7504
  22693735.1384   -1096877.35647   -800845.77546                  22693743.6264
        22.7504         21.0004
 02  7 15 20 42 30.0010000  0  5G31G11G14G21G25
  24017662.5054    3820398.45445   2869950.46946                  24017673.7824
        11.7504         12.2504
  22853576.8494    -934175.30047   -683649.81746                  22853583.4114
        22.2504         18.5004
  21130021.7244    2891846.67347   2184866.51247                  21130027.5014
        27.2504         28.0004
  22517298.3804    3060059.21547   2311837.79146                  22517306.4934
        22.2504         20.2504
  22691692.2084   -1107612.06347   -809210.43046                  22691700.4974
        22.7504         21.2504
 02  7 15 20 42 45.0010000  0  5G31G11G14G21G25
  24030205.2714    3886313.59945   2921312.84945                  24030216.7244
        11.5004         11.7504
  22852134.8724    -941753.45447   -689554.84646                  22852141.1304
        22.5004         18.5004
  21139908.2944    2943800.56747   2225350.06647                  21139914.0604
        27.2504         28.0004
  22527401.9974    3113153.37847   2353209.84646                  22527410.1464
        22.2504         20.0004
  22689672.6924   -1118224.52047   -817479.82346                  22689681.1224
        22.2504         21.2504
 02  7 15 20 43  0.0010000  0  5G31G11G14G21G25
  24042770.5214    3952343.08245   2972764.33845                  24042782.6064
        11.2504         11.5004
  22850718.8254    -949194.52347   -695353.04946                  22850725.7204
        22.2504         18.7504
  21149820.8804    2995892.62647   2265941.27147                  21149826.6814
        27.2504         27.7504
  22537524.5994    3166347.64847   2394659.91246                  22537532.7714
        22.7504         20.2504
  22687677.2944   -1128710.05947   -825650.33146                  22687685.6654
        22.7504         20.7504
 02  7 15 20 43 15.0010000  0  5G31G11G14G21G25
  24055355.8174    4018479.75845   3024299.32446                  24055367.2474
        11.0004         12.2504
  22849327.8724    -956504.96647   -701049.47646                  22849334.8134
        22.0004         18.7504
  21159758.7474    3048115.99647   2306634.80747                  21159764.5714
        27.5004         28.0004
  22547665.0524    3219635.28747   2436182.72846                  22547673.4114
        23.0004         20.5004
  22685704.8254   -1139075.05647   -833726.90046                  22685713.1964
        22.5004         21.0004
 02  7 15 20 43 30.0010000  0  5G31G11G14G21G25
  24067961.3414    4084723.85545   3075918.01346                  24067973.7434
        10.7504         12.0004
  22847961.6064    -963683.99747   -706643.50346                  22847968.7004
        22.5004         19.0004
  21169721.6464    3100470.77547   2347430.73247                  21169727.3294
        27.2504         28.0004
  22557823.1144    3273016.90047   2477778.77046                  22557831.5794
        22.7504         20.7504
  22683755.5054   -1149318.71347   -841708.92546                  22683763.8174
        22.2504         21.0004
 02  7 15 20 43 45.0010000  0  5G31G11G14G21G25
  24080589.0134    4151080.61945   3127624.51345                  24080600.6424
        10.5004         11.7504
  22846621.8494    -970725.56647   -712130.41046                  22846629.0954
        22.7504         18.7504
  21179710.4114    3152962.59147   2388333.44347                  21179716.1184
        27.2504         27.7504
  22568000.2244    3326498.41947   2519452.65346                  22568008.4544
        22.7504         20.2504
  22681830.6614   -1159434.95147   -849591.66046                  22681839.0794
        23.0004         21.2504
 02  7 15 20 44  0.0010000  0  5G31G11G14G21G25
  24093237.3724    4217546.75845   3179416.24345                  24093248.7084
        10.7504         11.5004
  22845307.2864    -977632.43547   -717512.35846                  22845314.6614
        22.2504         19.0004
  21189724.8564    3205588.24147   2429340.43647                  21189730.6104
        27.2504         28.2504
  22578195.9744    3380076.66147   2561201.91046                  22578204.4384
        22.2504         20.2504
  22679929.2554   -1169426.42247   -857377.17146                  22679937.5674
        22.7504         21.2504
 02  7 15 20 44 15.0010000  0  5G31G11G14G21G25
  24105905.0214    4284117.35245   3231289.33245                  24105916.2514
        10.7504         11.0004
  22844017.9584    -984408.81047   -722792.63046                  22844024.9704
        22.7504         19.0004
  21199763.7864    3258342.96347   2470448.00647                  21199769.4464
        27.7504         28.0004
  22588409.1614    3433747.24547   2603023.12146                  22588417.5214
        22.2504         20.2504
  22678050.7634   -1179297.30647   -865068.73046                  22678059.0524
        23.2504         21.5004
 02  7 15 20 44 30.0010000  0  5G31G11G14G21G25
  24118593.5604    4350796.31845   3283246.87345                  24118605.3414
        10.7504         11.2504
  22842753.8414    -991050.28847   -727967.78646                  22842760.8764
        22.2504         19.2504
  21209827.9034    3311230.69148   2511659.21547                  21209833.4584
        28.0004         28.0004
  22598641.0604    3487514.37247   2644919.57046                  22598649.1264
        22.0004         19.7504
  22676196.0754   -1189043.29347   -872662.96046                  22676204.3174
        23.2504         21.7504
 02  7 15 20 44 45.0010000  0  5G31G11G14G21G25
  24131304.0524    4417588.18445   3335292.41845                  24131316.1964
        10.7504         10.7504
  22841516.7944    -997551.46347   -733033.62146                  22841523.7124
        22.2504         19.0004
  21219918.4194    3364256.14648   2552977.74647                  21219924.1034
        28.0004         28.0004
  22608891.7394    3541383.12347   2686895.20146                  22608899.7124
        22.5004         19.7504
  22674366.2784   -1198658.99347   -880155.67246                  22674374.4624
        23.2504         21.5004
 02  7 15 20 45  0.0010000  0  5G31G11G14G21G25
  24144033.1064    4484478.15545   3387414.40145                  24144044.2434
        11.0004         11.2504
  22840303.5054   -1003926.44447   -738001.11646                  22840310.4464
        22.2504         19.2504
  21230032.1694    3417404.66448   2594392.17047                  21230037.7244
        28.0004         28.0004
  22619158.9974    3595339.12947   2728938.82146                  22619167.2634
        22.0004         19.7504
  22672558.4664   -1208158.43147   -887557.78846                  22672566.7904
        23.2504         21.5004
 02  7 15 20 45 15.0010000  0  5G31G11G14G21G25
  24156780.8494    4551470.77745   3439616.34345                  24156792.1264
        11.2504         11.2504
  22839115.1464   -1010170.02347   -742866.21046                  22839121.8604
        22.2504         19.0004
  21240170.4584    3470680.94748   2635906.15347                  21240176.2944
        28.2504         28.0004
  22629444.3964    3649387.53047   2771054.43146                  22629452.6964
        22.2504         20.0004
  22670774.0754   -1217536.37747   -894865.23746                  22670782.4584
        23.5004         22.0004
 02  7 15 20 45 30.0010000  0  5G31G11G14G21G25
  24169549.0524    4618565.05045   3491897.53445                  24169560.7284
        11.0004         11.0004
  22837952.3644   -1016282.59047   -747629.22946                  22837959.4704
        22.7504         19.0004
  21250332.5364    3524084.07448   2677518.97347                  21250338.0564
        28.0004         28.0004
  22639746.4584    3703527.70547   2813241.56146                  22639754.9464
        21.7504         20.0004
  22669012.4034   -1226793.18747   -902078.28246                  22669020.7984
        23.5004         21.7504
 02  7 15 20 45 45.0010000  0  5G31G11G14G21G25
  24182335.6774    4685759.55545   3544256.81545                  24182347.2474
        11.5004         11.2504
  22836813.6144   -1022264.97447   -752290.81246                  22836820.4744
        23.0004         19.2504
  21260518.6614    3577612.72248   2719229.60147                  21260524.2984
        28.2504         28.2504
  22650066.6854    3757758.42047   2855499.23646                  22650075.3374
        22.0004         19.7504
  22667273.6384   -1235929.70347   -909197.59546                  22667282.3724
        23.0004         22.2504
 02  7 15 20 46  0.0010000  0  5G31G11G14G21G25
  24195142.5604    4753058.11045   3596697.15945                  24195152.9814
        11.5004         11.2504
  22835700.8724   -1028112.55947   -756847.33846                  22835707.7314
        22.7504         19.2504
  21270729.4744    3631270.95348   2761041.20347                  21270735.0634
        28.2504         28.2504
  22660404.4424    3812084.12247   2897830.93046                  22660412.8964
        22.2504         20.0004
  22665558.7164   -1244941.18547   -916219.48446                  22665567.0524
        22.7504         21.7504
 02  7 15 20 46 15.0010000  0  5G31G11G14G21G25
  24207968.3804    4820458.33245   3649216.73145                  24207979.2944
        11.5004         11.5004
  22834613.6854   -1033827.24747   -761300.31746                  22834620.3414
        23.7504         19.2504
  21280964.6304    3685056.39347   2802951.93447                  21280970.1144
        27.7504         28.2504
  22670759.8724    3866502.60347   2940234.92346                  22670767.8804
        21.7504         19.5004
  22663867.5364   -1253829.47047   -923145.37046                  22663875.9664
        23.2504         22.2504
 02  7 15 20 46 30.0010000  0  5G31G11G14G21G25
  24220814.0754    4887961.55945   3701816.57046                  24220824.6854
        11.5004         12.0004
  22833551.9814   -1039406.82847   -765648.02946                  22833558.9814
        23.5004         19.7504
  21291224.1774    3738970.67248   2844963.05647                  21291229.7784
        28.2504         28.2504
  22681133.3174    3921015.61547   2982712.57746                  22681141.5134
        21.2504         19.7504
  22662199.6854   -1262592.49447   -929973.64946                  22662208.2554
        23.2504         22.2504
 02  7 15 20 46 45.0010000  0  5G31G11G14G21G25
  24233677.8724    4955563.51345   3754493.32445                  24233688.3994
        11.5004         11.2504
  22832514.9114   -1044855.02047   -769893.35446                  22832521.6854
        22.5004         19.2504
  21301507.2714    3793009.70248   2887071.38447                  21301512.9194
        28.0004         28.2504
  22691523.7864    3975619.59647   3025261.11846                  22691532.2634
        21.5004         19.5004
  22660555.5214   -1271233.96347   -936707.21746                  22660564.0794
        23.5004         22.5004
 02  7 15 20 47  0.0010000  0  5G31G11G14G21G25
  24246561.3644    5023264.12945   3807246.97645                  24246572.8064
        11.2504         11.5004
  22831503.0834   -1050171.10347   -774035.73346                  22831510.0604
        23.0004         19.2504
  21311814.4194    3847173.49448   2929276.93247                  21311819.9974
        28.2504         28.0004
  22701932.2314    4030314.81547   3067880.73746                  22701940.9074
        22.2504         19.7504
  22658933.9974   -1279753.04647   -943345.41746                  22658942.5094
        23.5004         22.7504
 02  7 15 20 47 15.0010000  0  5G31G11G14G21G25
  24259463.1534    5091061.81745   3860076.26345                  24259474.3964
        11.5004         11.2504
  22830516.6304   -1055356.09147   -778075.97046                  22830523.1574
        23.0004         19.0004
  21322144.8494    3901460.47148   2971578.46847                  21322150.4624
        28.2504         28.2504
  22712357.7314    4085100.15847   3110570.58946                  22712366.2554
        22.2504         19.7504
  22657336.2004   -1288150.73047   -949889.01346                  22657344.4894
        23.7504         22.5004
 02  7 15 20 47 30.0010000  0  5G31G11G14G21G25
  24272382.5054    5158957.02345   3912981.51645                  24272394.1814
        11.5004         11.2504
  22829555.2244   -1060408.90247   -782013.19946                  22829561.7044
        22.7504         19.2504
  21332498.7714    3955871.19848   3013976.43247                  21332504.5014
        28.2504         28.2504
  22722800.3884    4139976.40347   3153331.28046                  22722808.9464
        22.2504         20.0004
  22655761.3964   -1296425.88547   -956337.13946                  22655769.6264
        23.7504         22.5004
 02  7 15 20 47 45.0020000  0  5G31G11G14G21G25
  24285321.3464    5226950.14845   3965963.09045                  24285333.2324
        11.5004         11.5004
  22828618.0254   -1065333.29247   -785850.37046                  22828624.5534
        23.2504         19.5004
  21342876.4474    4010405.44448   3056470.64447                  21342882.1314
        28.5004         28.2504
  22733259.9944    4194943.36647   3196162.65746                  22733268.6004
        22.0004         19.7504
  22654209.2364   -1304582.48847   -962692.89046                  22654217.6194
        24.0004         22.5004
 02  7 15 20 48  0.0020000  0  5G31G11G14G21G25
  24298277.7444    5295034.78646   4019015.97145                  24298289.2214
        12.2504         11.7504
  22827706.1824   -1070125.32247   -789584.40346                  22827713.0144
        23.5004         19.5004
  21353276.8144    4065058.67448   3099057.56847                  21353282.4754
        28.5004         28.2504
  22743736.4474    4249996.90347   3239061.49046                  22743744.7014
        21.7504         19.2504
  22652680.2524   -1312616.17947   -968952.86346                  22652688.5294
        23.5004         22.5004
 02  7 15 20 48 15.0020000  0  5G31G11G14G21G25
  24311252.2524    5363215.69046   4072143.87546                  24311263.8344
        12.7504         12.2504
  22826819.4944   -1074784.39147   -793214.83146                  22826826.1044
        23.0004         19.2504
  21363700.1584    4119834.79848   3141740.26147                  21363705.8184
        28.2504         28.5004
  22754229.9944    4305141.23847   3282031.08246                  22754238.2134
        21.2504         19.2504
  22651175.0494   -1320526.54847   -975116.73646                  22651183.2214
        23.7504         22.5004
 02  7 15 20 48 30.0020000  0  5G31G11G14G21G25
  24324243.4244    5431485.21346   4125340.80346                  24324254.1624
        12.5004         12.0004
  22825957.0804   -1079317.53847   -796747.13446                  22825964.2684
        23.2504         19.2504
  21374145.9394    4174726.42748   3184512.95247                  21374151.6004
        29.0004         28.2504
  22764739.6434    4360369.16547   3325065.81246                  22764747.9674
        21.2504         19.7504
  22649691.9004   -1328320.50847   -981189.89646                  22649700.2714
        23.5004         22.7504
 02  7 15 20 48 45.0020000  0  5G31G11G14G21G25
  24337251.3614    5499843.64446   4178607.02645                  24337261.6664
        12.2504         11.7504
  22825118.5184   -1083723.77347   -800180.54346                  22825125.4944
        23.2504         20.0004
  21384613.4084    4229733.99848   3227375.98747                  21384618.9984
        29.0004         28.5004
  22775265.4004    4415681.43447   3368166.25846                  22775273.5494
        22.0004         19.7504
  22648230.9394   -1335997.17647   -987171.66746                  22648239.2644
        23.5004         22.5004
 02  7 15 20 49  0.0020000  0  5G31G11G14G21G25
  24350277.9164    5568294.76646   4231945.47245                  24350288.7254
        12.0004         11.2504
  22824304.8774   -1087998.48947   -803511.48146                  22824311.8894
        22.7504         19.7504
  21395103.8544    4284861.40448   3270332.40047                  21395109.5024
        28.5004         28.5004
  22785807.9474    4471082.62747   3411336.00046                  22785816.3424
        21.7504         19.7504
  22646793.4634   -1343551.95247   -993058.46346                  22646801.9164
        23.7504         22.7504
 02  7 15 20 49 15.0020000  0  5G31G11G14G21G25
  24363320.3384    5636832.58046   4285351.48445                  24363331.9324
        12.2504         11.7504
  22823515.2684   -1092147.18047   -806744.20646                  22823522.4324
        23.2504         20.0004
  21405615.7214    4340102.78248   3313377.62247                  21405621.2994
        28.7504         28.5004
  22796366.0334    4526566.74047   3454570.35046                  22796374.7094
        21.2504         19.5004
  22645378.0964   -1350990.19047   -998854.43646                  22645386.5024
        24.2504         23.0004
 02  7 15 20 49 30.0020000  0  5G31G11G14G21G25
  24376379.3544    5705458.44346   4338826.07845                  24376389.6934
        12.2504         11.5004
  22822750.2294   -1096167.87947   -809877.20146                  22822756.8964
        23.5004         19.7504
  21416149.9864    4395459.57548   3356512.77847                  21416155.5534
        29.0004         28.2504
  22806940.3544    4582135.57147   3497870.71446                  22806948.7014
        21.0004         19.2504
  22643984.9394   -1358309.99947  -1004558.13346                  22643992.9594
        24.5004         23.0004
 02  7 15 20 49 45.0020000  0  5G31G11G14G21G25
  24389455.3224    5774172.43246   4392369.37145                  24389465.7684
        12.5004         11.2504
  22822009.8224   -1100059.83447   -812909.87346                  22822016.5374
        23.7504         19.5004
  21426706.0724    4450932.01548   3399738.05147                  21426711.8734
        28.7504         28.5004
  22817530.9244    4637789.52747   3541237.40946                  22817539.1434
        20.2504         19.2504
  22642614.8614   -1365510.47447  -1010168.84746                  22642622.9864
        24.7504         23.2504
 02  7 15 20 50  0.0020000  0  5G31G11G14G21G25
  24402546.8144    5842971.10946   4445978.63545                  24402557.3774
        12.0004         11.5004
  22821293.0024   -1103825.68047   -815844.29446                  22821299.6004
        24.0004         19.7504
  21437283.4474    4506516.89048   3443050.93047                  21437289.1664
        29.0004         28.2504
  22828137.2754    4693525.82947   3584668.27346                  22828145.4474
        20.7504         18.7504
  22641266.4244   -1372594.37947  -1015688.72746                  22641274.5374
        24.5004         23.0004
 02  7 15 20 50 15.0020000  0  5G31G11G14G21G25
  24415655.3224    5911856.05345   4499655.12345                  24415665.4514
        11.2504         11.0004
  22820601.0574   -1107463.25347   -818678.74446                  22820607.1394
        24.5004         19.7504
  21447882.5574    4562215.81248   3486452.68147                  21447888.2404
        28.7504         28.2504
  22838759.7054    4749346.56847   3628164.93446                  22838767.8304
        21.0004         18.7504
  22639941.2604   -1379559.43947  -1021116.01446                  22639949.2684
        24.5004         23.2504
 02  7 15 20 50 30.0020000  0  5G31G11G14G21G25
  24428781.0104    5980831.93645   4553402.45945                  24428793.0144
        11.0004         11.2504
  22819934.1274   -1110967.15847   -821409.04646                  22819940.3384
        24.5004         20.0004
  21458504.3464    4618033.65048   3529947.09847                  21458510.0764
        28.7504         28.0004
  22849399.0644    4805256.66947   3671731.23046                  22849407.5884
        21.5004         19.0004
  22638639.4634   -1386400.34547  -1026446.53346                  22638647.4594
        24.7504         23.2504
 02  7 15 20 50 45.0020000  0  5G31G11G14G21G25
  24441922.3544    6049889.64845   4607213.59445                  24441934.0764
        10.7504         10.7504
  22819291.4244   -1114345.94547   -824041.84446                  22819297.9164
        25.0004         19.5004
  21469147.1194    4673961.40148   3573527.15647                  21469152.8264
        28.7504         28.2504
  22860053.6744    4861247.41147   3715360.35346                  22860062.2564
        21.0004         18.5004
  22637359.3144   -1393125.52947  -1031686.88546                  22637367.2404
        24.5004         23.2504
 02  7 15 20 51  0.0020000  0  5G31G11G14G21G25
  24455078.4474    6119025.65945   4661085.70345                  24455090.1114
        10.5004         10.7504
  22818671.5884   -1117602.45547   -826579.37246                  22818678.1974
        24.5004         20.0004
  21479809.8854    4729995.58648   3617190.15347                  21479815.8034
        28.7504         28.5004
  22870723.0494    4917315.81847   3759049.99646                  22870734.7014
        20.5004         19.5004
  22636101.3144   -1399737.75247  -1036839.21846                  22636109.1114
        24.5004         23.2504
 02  7 15 20 51 15.0020000  0  5G31G11G14G21G25
  24468250.1824    6188244.20645   4715022.13345                  24468262.4204
        10.0004         11.0004
  22818075.7994   -1120731.81547   -829017.81246                  22818082.3034
        24.7504         20.0004
  21490493.8464    4786140.61048   3660939.54747                  21490499.7754
        28.2504         29.0004
  22881408.4794    4973466.53147
        20.0004
  22634865.3934   -1406232.18347  -1041899.77246                  22634873.3774
        24.7504         23.2504
 02  7 15 20 51 30.0020000  0  5G31G11G14G21G25
  24481437.5024    6257540.83745   4769019.41745                  24481449.4244
        10.2504         11.2504
  22817503.7294   -1123737.78347   -831360.10746                  22817510.7644
        24.2504         20.0004
  21501198.3074    4842392.26848   3704771.96447                  21501204.0844
        28.5004         28.2504
  22892108.4714    5029695.39247
        21.0004
  22633651.1504   -1412612.73747  -1046871.58146                  22633659.2404
        24.7504         23.5004
 02  7 15 20 51 45.0020000  0  5G31G11G14G21G25
  24494640.0644    6326921.28745   4823081.99845                  24494652.0104
        10.0004         11.0004
  22816956.7294   -1126613.90747   -833601.21946                  22816963.5884
        24.7504         20.5004
  21511924.3384    4898756.46048   3748692.11747                  21511929.9754
        28.5004         28.2504
  22902824.8074    5086008.64447     20481.91456                  22902833.6464
        20.2504         18.5004
  22632459.9244   -1418872.83147  -1051749.52746                  22632467.9204
        25.2504         23.5004
 02  7 15 20 52  0.0020000  0  5G31G11G14G21G25
  24507857.4244    6396378.98545   4877204.79645                  24507869.5214
        10.0004         11.2504
  22816432.6974   -1129366.07247   -835745.75546                  22816439.1894
        24.5004         20.0004
  21522669.9084    4955226.71348   3792694.91047                  21522675.8264
        28.7504         28.2504
  22913555.2444    5142400.15047     64423.31746                  22913563.4394
        20.2504         18.7504
  22631290.4164   -1425018.43347  -1056538.25446                  22631298.3424
        25.2504         23.7504
 02  7 15 20 52 15.0020000  0  5G31G11G14G21G25
  24521089.6434    6465913.49345   4931387.43045                  24521101.4124
         9.7504         10.7504
  22815932.7294   -1131994.20647   -837793.62946                  22815939.0804
        24.7504         20.2504
  21533436.0804    5011802.58948   3836779.99947                  21533441.8464
        29.0004         28.2504
  22924301.1354    5198869.85647    108425.66646                  22924309.5184
        20.2504         18.5004
  22630142.8934   -1431049.19147  -1061237.50446                  22630150.8184
        25.0004         23.7504
 02  7 15 20 52 30.0020000  0  5G31G11G14G21G25
  24534337.0334    6535527.13945   4985631.72045                  24534349.5294
        10.0004         10.7504
  22815456.8384   -1134495.27547   -839742.50646                  22815463.3544
        24.7504         20.2504
  21544222.6744    5068486.59448   3880949.35047                  21544228.3814
        29.2504         28.2504
  22935062.4084    5255420.40547    152490.99946                  22935070.9794
        20.0004         18.5004
  22629017.6274   -1436962.15847  -1065844.96646                  22629025.5184
        25.2504         23.7504
 02  7 15 20 52 45.0020000  0  5G31G11G14G21G25
  24547598.2054    6605218.08145   5039936.24845                  24547610.6314
         9.7504         11.0004
  22815004.8384   -1136870.32847   -841593.18246                  22815011.3304
        24.7504         20.2504
  21555029.8694    5125277.16748   3925201.73747                  21555035.4594
        29.2504         28.2504
  22945838.8384    5312050.49947    196618.31046                  22945847.6664
        20.5004         18.7504
  22627914.4634   -1442758.45847  -1070361.51646                  22627922.1894
        25.2504         23.7504
 02  7 15 20 53  0.0020000  0  5G31G11G14G21G25
  24560875.0884    6674986.49945   5094301.15145                  24560887.4434
         9.5004         10.2504
  22814576.6664   -1139118.71847   -843345.16346                  22814583.1234
        24.2504         20.2504
  21565856.8934    5182174.31248   3969537.17047                  21565862.4474
        29.5004         28.2504
  22956630.5334    5368760.69447    240808.04846                  22956639.4434
        20.7504         18.7504
  22626833.8614   -1448437.38447  -1074786.60646                  22626841.5884
        25.0004         23.7504
 02  7 15 20 53 15.0020000  0  5G31G11G14G21G25
  24574166.8074    6744835.34945   5148728.72645                  24574178.9984
         9.2504          9.7504
  22814173.7524   -1141236.75547   -844995.56046                  22814180.5024
        24.2504         20.5004
  21576704.8224    5239181.38248   4013958.26047                  21576710.3654
        29.5004         28.2504
  22967437.8144    5425554.36647    285062.83346                  22967446.2914
        21.0004         18.7504
  22625776.0574   -1453995.12547  -1079117.26946                  22625784.0184
        25.5004         24.0004
 02  7 15 20 53 30.0020000  0  5G31G11G14G21G25
  24587472.0184    6814753.47845   5203210.27945                  24587484.3264
         9.2504          9.7504
  22813793.4794   -1143234.88547   -846552.52646                  22813800.3504
        24.2504         20.5004
  21587571.8774    5296287.46448   4058456.50047                  21587577.5724
        29.5004         28.2504
  22978259.1274    5482420.75347    329374.29946                  22978267.5574
        20.5004         18.5004
  22624739.4714   -1459442.25047  -1083361.73246                  22624747.3964
        25.5004         24.0004
 02  7 15 20 53 45.0020000  0  5G31G11G14G21G25
  24600790.7054    6884744.63645   5257748.73345                  24600801.2794
         9.5004          9.7504
  22813436.9474   -1145108.85147   -848012.74446                  22813444.1824
        24.5004         20.7504
  21598458.3074    5353496.24048   4103034.76247                  21598464.0614
        29.7504         28.0004
  22989095.3074    5539363.99647    373745.63046                  22989103.6784
        20.2504         18.7504
  22623724.7604   -1464774.31147  -1087516.54146                  22623732.7094
        25.5004         24.0004
 02  7 15 20 54  0.0020000  0  5G31G11G14G21G25
  24614122.9244    6954806.40145   5312342.22045                  24614134.6584
         9.0004         10.0004
  22813103.6274   -1146860.14147   -849377.36346                  22813110.4124
        24.5004         21.0004
  21609363.9474    5410805.57648   4147691.38147                  21609369.6784
        29.2504         28.0004
  22999945.3934    5596382.40347    418175.53246                  22999954.2914
        20.2504         18.2504
  22622731.8224   -1469992.91347  -1091582.93846                  22622739.7254
        25.7504         24.2504
 02  7 15 20 54 15.0020000  0  5G31G11G14G21G25
  24627469.4244    7024940.44545   5366992.04745                  24627480.4084
         9.0004          9.7504
  22812794.0414   -1148486.70247   -850644.79046                  22812800.9474
        24.5004         20.7504
  21620288.8694    5468217.08648   4192427.62347                  21620294.5764
        29.2504         28.0004
  23010810.3144    5653477.81647    462665.43446                  23010818.9084
        20.5004         18.7504
  22621760.9004   -1475095.91147  -1095559.25246                  22621769.0254
        25.5004         24.5004
 02  7 15 20 54 30.0020000  0  5G31G11G14G21G25
  24640827.9944    7095143.46945   5421695.60445                  24640839.5884
         9.2504          9.2504
  22812508.0574   -1149991.03547   -851816.97746                  22812514.8184
        24.5004         21.0004
  21631232.8464    5525727.72148   4237241.10247                  21631238.5184
        29.5004         28.0004
  23021689.4244    5710647.48547    507213.21146                  23021697.6434
        20.5004         18.7504
  22620811.0184   -1480085.84247  -1099447.46246                  22620819.0844
        26.0004         24.5004
 02  7 15 20 54 45.0020000  0  5G31G11G14G21G25
  24654201.3544    7165418.28245   5476455.09345                  24654214.3304
         9.2504          9.7504
  22812245.6434   -1151369.58647   -852891.15546                  22812252.6664
        25.2504         21.0004
  21642196.1504    5583340.42648   4282134.10947                  21642201.6824
        29.5004         28.2504
  23032583.5184    5767894.65247    551821.37746                  23032591.9594
        20.5004         18.5004
  22619883.4794   -1484959.17747  -1103244.82246                  22619891.6044
        25.5004         24.5004
 02  7 15 20 55  0.0020000  0  5G31G11G14G21G25
  24667587.2214    7235759.94745   5531266.67545                  24667598.7684
         9.5004         10.0004
  22812006.2214   -1152626.74147   -853870.73346                  22812012.8074
        25.2504         21.0004
  21653177.8614    5641050.38748   4327102.91247                  21653183.3814
        29.0004         28.2504
  23043490.9554    5825214.47947    596486.15846                  23043499.3614
        20.2504         18.5004
  22618977.7134   -1489720.22547  -1106954.67746                  22618985.9554
        25.5004         24.7504
 02  7 15 20 55 15.0020000  0  5G31G11G14G21G25
  24680986.6744    7306173.17745   5586134.03945                  24680999.4284
         9.7504         10.0004
  22811791.1894   -1153757.22447   -854751.60246                  22811797.9164
        25.0004         20.7504
  21664179.3544    5698862.55248   4372151.34647                  21664184.9084
        29.0004         27.7504
  23054413.1894    5882612.20247    641211.62746                  23054421.6434
        20.2504         18.5004
  22618093.9004   -1494363.55947  -1110572.82046                  22618101.9434
        25.5004         24.5004
 02  7 15 20 55 30.0020000  0  5G31G11G14G21G25
  24694399.1114    7376654.02945   5641054.07345                  24694412.7564
         9.5004         10.0004
  22811599.4004   -1154764.19347   -855536.22946                  22811606.3304
        24.7504         20.7504
  21675199.5104    5756772.99248   4417276.35447                  21675205.2524
        29.0004         28.0004
  23065349.9944    5940084.59246    685995.28146                  23065358.4244
        19.5004         18.2504
  22617232.0644   -1498892.59447  -1114101.89146                  22617240.1544
        25.5004         24.5004
 02  7 15 20 55 45.0020000  0  5G31G11G14G21G25
  24707822.6894    7447198.86345   5696023.98445                  24707834.6114
        10.5004         10.0004
  22811430.6744   -1155650.58747   -856226.90246                  22811437.1544
        24.5004         20.7504
  21686237.4634    5814778.27048   4462475.26947                  21686243.0644
        29.0004         27.7504
  23076300.0884    5997628.40147    730834.60046                  23076308.6824
        20.2504         18.5004
  22616391.6194   -1503310.06347  -1117544.02446                  22616399.7794
        25.2504         24.7504
 02  7 15 20 56  0.0020000  0  5G31G11G14G21G25
  24721260.4164    7517812.18145   5751047.25345                  24721272.6194
        10.5004         10.5004
  22811286.0644   -1156411.46647   -856819.77046                  22811292.8144
        25.2504         21.0004
  21697294.2754    5872882.95248   4507751.64047                  21697299.9244
        29.0004         27.7504
  23087264.8694    6055248.28547    775733.18046                  23087273.6154
        20.0004         18.5004
  22615572.8694   -1507610.96447  -1120895.33646                  22615581.0184
        25.2504         25.0004
 02  7 15 20 56 15.0020000  0  5G31G11G14G21G25
  24734709.7524    7588490.24945   5806120.94745                  24734721.6624
        10.5004          9.7504
  22811164.2754   -1157049.78547   -857317.13846                  22811170.8384
        25.0004         21.0004
  21708369.4944    5931083.54048   4553102.74547                  21708375.1894
        29.0004         27.7504
  23098243.4474    6112940.96346    820688.48946                  23098252.3464
        19.7504         18.5004
  22614776.0494   -1511798.32647  -1124158.17846                  22614784.0104
        25.2504         25.2504
 02  7 15 20 56 30.0020000  0  5G31G11G14G21G25
  24748172.4794    7659234.05045   5861245.89845                  24748185.3614
        10.5004         10.2504
  22811066.6824   -1157563.84847   -857717.68846                  22811073.1974
        25.5004         21.0004
  21719463.1894    5989381.08348   4598529.40147                  21719468.8964
        29.0004         27.7504
  23109236.0184    6170707.87946    865701.63246                  23109245.0214
        19.7504         18.2504
  22614001.3854   -1515870.59647  -1127331.33046                  22614009.4394
        25.5004         25.2504
 02  7 15 20 56 45.0020000  0  5G31G11G14G21G25
  24761645.8224    7730042.20945   5916420.99645                  24761658.0964
        10.0004         10.0004
  22810992.5024   -1157954.39047   -858021.97346                  22810999.2404
        25.7504         21.5004
  21730574.9324    6047774.34648   4644030.63947                  21730580.6044
        29.0004         27.7504
  23120242.7214    6228548.14047    910771.95046                  23120251.1394
        20.0004         18.5004
  22613247.8694   -1519828.44547  -1130415.32946                  22613255.9714
        25.5004         25.0004
 02  7 15 20 57  0.0020000  0  5G31G11G14G21G25
  24775132.5414    7800910.36745   5971642.81545                  24775144.3344
        10.7504          9.7504
  22810941.0184   -1158225.20447   -858232.97346                  22810947.6394
        26.0004         21.5004
  21741704.3854    6106259.10048   4689603.17547                  21741710.1744
        29.0004         27.5004
  23131262.8144    6286457.83847    955896.36046                  23131271.6784
        20.0004         18.5004
  22612516.1434   -1523675.58547  -1133413.05446                  22612524.2324
        26.2504         25.5004
 02  7 15 20 57 15.0020000  0  5G31G11G14G21G25
  24788630.6504    7871840.72045   6026913.14545                  24788643.2404
        10.7504         10.0004
  22810912.6744   -1158373.46247   -858348.47346                  22810919.2604
        26.2504         21.7504
  21752851.5334    6164837.74448   4735248.86547                  21752857.2644
        29.2504         27.7504
  23142296.5104    6344439.52147   1001076.87546                  23142304.6934
        20.5004         18.0004
  22611805.3144   -1527409.13147  -1136322.26846                  22611813.2404
        25.7504         25.5004
 02  7 15 20 57 30.0020000  0  5G31G11G14G21G25
  24802139.4554    7942831.25245   6082230.31945                  24802151.4824
        10.5004          9.2504
  22810907.6274   -1158400.33547   -858369.38646                  22810914.1894
        26.0004         21.5004
  21764016.2294    6223508.35248   4780966.21947                  21764021.9474
        28.7504         27.7504
  23153343.4714    6402491.80147   1046312.39246                  23153351.8184
        20.0004         18.2504
  22611116.3304   -1531030.37447  -1139143.98646                  22611124.4554
        26.2504         25.5004
 02  7 15 20 57 45.0020000  0  5G31G11G14G21G25
  24815660.7444    8013885.77045   6137597.39045                  24815672.6894
        10.2504          9.2504
  22810926.1974   -1158301.50947   -858292.36046                  22810932.7714
        26.5004         21.7504
  21775199.1504    6282274.94748   4826758.36547                  21775204.8344
        29.5004         27.7504
  23164404.4794    6460618.76246   1091606.10346                  23164413.5184
        19.5004         18.2504
  22610449.3854   -1534534.88047  -1141874.71846                  22610457.4044
        26.0004         25.5004
 02  7 15 20 58  0.0020000  0  5G31G11G14G21G25
  24829192.7914    8084997.42945   6193008.94445                  24829205.2294
        10.7504          9.7504
  22810967.9944   -1158083.18347   -858122.20846                  22810974.5804
        26.2504         21.7504
  21786399.0644    6341130.66848   4872619.96547                  21786404.6544
        29.5004         27.7504
  23175478.4244    6518814.06746   1136953.06246                  23175487.5214
        19.0004         18.2504
  22609803.4474   -1537928.82747  -1144519.31646                  22609811.4434
        26.2504         25.5004
 02  7 15 20 58 15.0020000  0  5G31G11G14G21G25
  24842735.9394    8156166.97145   6248465.63545                  24842748.9514
         9.7504          9.7504
  22811032.3694   -1157744.02147   -857857.90846                  22811039.0614
        26.5004         21.7504
  21797615.9634    6400076.37348   4918551.67747                  21797621.6464
        29.2504         27.5004
  23186566.2524    6577078.62246   1182353.98946                  23186575.3384
        18.7504         18.2504
  22609178.9004   -1541210.92647  -1147076.75146                  22609186.9204
        26.0004         25.5004
 02  7 15 20 58 30.0020000  0  5G31G11G14G21G25
  24856291.0254    8227398.93245   6303970.96445                  24856303.1354
        10.0004          9.0004
  22811120.8694   -1157278.78247   -857495.36646                  22811127.3264
        27.0004         21.7504
  21808850.9714    6459116.92348   4964557.30047                  21808856.6544
        29.0004         27.5004
  23197667.6744    6635417.52346   1227812.84346                  23197676.7484
        19.7504         18.2504
  22608576.6504   -1544375.72747  -1149542.79046                  22608584.5064
        26.2504         25.5004
 02  7 15 20 58 45.0020000  0  5G31G11G14G21G25
  24869856.7294    8298685.38045   6359518.73245                  24869868.9794
        10.0004          8.2504
  22811232.1274   -1156694.67647   -857040.20246                  22811238.5724
        26.5004         21.7504
  21820102.3694    6518244.51048   5010630.74247                  21820108.0294
        28.7504         27.5004
  23208781.9004    6693823.16747   1273323.71246                  23208790.8114
        20.0004         18.5004
  22607995.0104   -1547430.56847  -1151923.14546                  22608002.7134
        26.2504         25.5004
 02  7 15 20 59  0.0020000  0  5G31G11G14G21G25
  24883433.3614    8370032.79345   6415114.00045                  24883443.4204
        10.0004          9.7504
  22811367.3224   -1155984.57047   -856486.84946                  22811373.9554
        26.7504         22.0004
  21831371.8304    6577465.70548   5056777.12347                  21831377.6194
        29.0004         27.5004
  23219910.2684    6752302.34246   1318891.88346                  23219918.7324
        19.7504         18.0004
  22607436.3614   -1550368.26247  -1154212.21446                  22607444.1934
        26.2504         25.5004
 02  7 15 20 59 15.0020000  0  5G31G11G14G21G25
  24897020.2524    8441432.29545   6470749.88345                  24897032.5614
        10.2504          9.5004
  22811524.7364   -1155156.79347   -855841.82146                  22811531.5574
        26.5004         22.2504
  21842657.7054    6636771.77148   5102989.63747                  21842663.4594
        29.2504         27.5004
  23231050.8934    6810846.69946   1364510.83646                  23231059.7684
        19.7504         18.0004
  22606897.8384   -1553197.12047  -1156416.48047                  22606905.5764
        26.5004         25.7504
 02  7 15 20 59 30.0020000  0  5G31G11G14G21G25
  24910617.3854    8512883.88345   6526426.33845                  24910629.6704
        10.2504          9.2504
  22811704.6044   -1154210.65947   -855104.54946                  22811711.3774
        26.2504         22.2504
  21853959.2444    6696162.76048   5149268.33047                  21853964.8814
        29.0004         27.5004
  23242203.7524    6869456.78246   1410181.00746                  23242212.6394
        19.2504         17.7504
  22606380.2524   -1555916.62847  -1158535.54347                  22606387.9554
        26.7504         25.7504
 02  7 15 20 59 45.0020000  0  5G31G11G14G21G25
  24924224.5884    8584390.80045   6582145.92845                  24924236.6744
        10.0004          9.5004
  22811908.1044   -1153142.30747   -854272.06346                  22811914.8184
        26.5004         22.0004
  21865277.7054    6755642.05848   5195615.82647                  21865283.2834
        28.7504         27.2504
  23253370.2364    6928136.24746   1455905.22946                  23253379.1824
        18.7504         17.7504
  22605884.3774   -1558522.69647  -1160566.21147                  22605892.1974
        26.2504         25.7504
 02  7 15 21  0  0.0020000  0  5G31G11G14G21G25
  24937843.4554    8655956.48945   6637911.28745                  24937856.0454
         9.7504          9.5004
  22812135.3074   -1151947.61147   -853341.11346                  22812142.2834
        25.5004         22.0004
  21876613.8074    6815213.30448   5242034.98347                  21876619.4554
        29.2504         27.2504
  23264550.5254    6986889.00046   1501686.57346                  23264559.2834
        19.5004         18.2504
  22605410.8304   -1561011.35947  -1162505.38946                  22605418.5214
        26.7504         25.5004
 02  7 15 21  0 15.0030000  0  5G31G11G14G21G25
  24951472.9604    8727581.73445   6693723.04945                  24951487.3314
         9.2504          9.0004
  22812385.9994   -1150629.78147   -852314.21346                  22812392.9524
        26.0004         22.0004
  21887967.4374    6874876.69248   5288525.92747                  21887973.1204
        28.7504         27.0004
  23275745.0304    7045715.22546   1547525.16546                  23275753.7654
        19.7504         18.2504
  22604958.7334   -1563386.08647  -1164355.78546                  22604966.5304
        26.7504         25.5004
 02  7 15 21  0 30.0030000  0  5G31G11G14G21G25
  24965112.4134    8799255.30745   6749572.48245                  24965125.1324
         9.2504          9.5004
  22812659.8664   -1149190.14747   -851192.41046                  22812666.6164
        26.0004         22.2504
  21899336.6474    6934622.62748   5335081.19747                  21899342.2844
        28.7504         27.0004
  23286951.4444    7104605.79446   1593413.89146                  23286960.4604
        19.0004         18.0004
  22604528.6634   -1565647.59147  -1166117.96246                  22604536.2264
        27.0004         25.5004
 02  7 15 21  0 45.0030000  0  5G31G11G14G21G25
  24978761.6014    8870984.74745   6805465.42745                  24978773.7334
         8.7504          9.2504
  22812957.6634   -1147625.19047   -849972.95046                  22812964.2494
        26.5004         21.7504
  21910723.2654    6994457.98148   5381706.14447                  21910729.1364
        28.5004         27.2504
  23298171.3584    7163567.81046   1639358.29346                  23298180.2924
        19.2504         17.7504
  22604120.1794   -1567792.58047  -1167789.34546                  22604127.5894
        27.0004         25.5004
 02  7 15 21  1  0.0030000  0  5G31G11G14G21G25
  24992420.5304    8942760.71245   6861394.61845                  24992433.4134
         8.5004          9.5004
  22813277.8274   -1145943.52247   -848662.55046                  22813284.2024
        26.2504         21.7504
  21922124.5624    7054373.63848   5428393.66547                  21922130.2804
        29.2504         27.0004
  23309403.3354    7222592.41546   1685351.46446                  23309411.9524
        18.7504         17.5004
  22603732.7184   -1569829.68147  -1169376.65746                  22603740.1874
        27.2504         25.5004
 02  7 15 21  1 15.0030000  0  5G31G11G14G21G25
  25006088.3434    9014587.12745   6917363.11245                  25006100.6164
         8.0004          9.2504
  22813620.7574   -1144140.65347   -847257.70746                  22813627.1084
        26.7504         22.0004
  21933542.2334    7114373.54148   5475146.82747                  21933548.0584
        28.5004         27.0004
  23320648.4764    7281684.04646   1731396.85446                  23320657.1164
        19.5004         17.5004
  22603366.2654   -1571754.38047  -1170876.38646                  22603373.8274
        27.0004         25.5004
 02  7 15 21  1 30.0030000  0  5G31G11G14G21G25
  25019766.8744    9086466.62445   6973373.01345                  25019780.4484
         7.7504          9.5004
  22813987.4444   -1142213.27647   -845755.84546                  22813993.8434
        26.2504         22.0004
  21944976.2024    7174460.54848   5521967.87047                  21944981.9214
        28.7504         26.7504
  23331906.6014    7340845.58146   1777496.73546                  23331915.1474
        19.5004         17.5004
  22603022.1714   -1573563.37847  -1172285.95846                  22603029.7104
        27.2504         25.5004
 02  7 15 21  1 45.0030000  0  5G31G11G14G21G25
  25033454.5694    9158397.20545   7029422.69945                  25033467.4404
         7.7504          8.7504
  22814377.7884   -1140162.68147   -844157.96946                  22814384.2804
        26.2504         22.2504
  21956426.7574    7234632.87548   5568855.39047                  21956432.4644
        28.7504         26.7504
  23343177.4214    7400075.60446   1823649.96746                  23343185.7694
        19.0004         17.7504
  22602699.5854   -1575257.80147  -1173606.25046                  22602707.1364
        27.0004         25.5004
 02  7 15 21  2  0.0030000  0  5G31G11G14G21G25
  25047152.6554    9230377.57645   7085511.14845                  25047164.7654
         7.5004          8.5004
  22814791.2884   -1137989.63047   -842464.66446                  22814797.8744
        26.2504         22.5004
  21967892.7884    7294889.26748   5615808.42247                  21967898.5304
        28.2504         26.7504
  23354461.2724    7459373.18546   1869855.85946                  23354469.8084
        18.7504         17.0004
  22602398.7264   -1576838.58847  -1174837.99046                  22602406.2884
        27.0004         25.5004
 02  7 15 21  2 15.0030000  0  5G31G11G14G21G25
  25060859.5154    9302409.64145   7141639.92345                  25060873.0424
         7.5004          9.0004
  22815228.3044   -1135691.64147   -840674.02046                  22815235.0654
        25.7504         22.0004
  21979376.0544    7355231.72848   5662828.51647                  21979381.8314
        28.7504         27.0004
  23365758.4994    7518740.44846   1916116.01746                  23365767.2694
        18.5004         17.0004
  22602119.8824   -1578303.17647  -1175979.18446                  22602127.3624
        27.0004         25.5004
 02  7 15 21  2 30.0030000  0  5G31G11G14G21G25
  25074576.3354    9374490.17045   7197806.42145                  25074588.7264
         7.5004          9.0004
  22815688.9134   -1133271.10947   -838787.87146                  22815695.4764
        26.5004         22.5004
  21990874.5854    7415657.26348   5709913.34447                  21990880.2694
        28.5004         26.7504
  23377068.7334    7578174.81346   1962428.48446                  23377077.6674
        18.0004         17.0004
  22601862.7724   -1579654.02847  -1177031.75647                  22601870.3354
        27.2504         25.7504
 02  7 15 21  2 45.0030000  0  5G31G11G14G21G25
  25088302.1014    9446619.44444   7254010.95545                  25088316.6014
         7.2504          8.7504
  22816173.0074   -1130727.22647   -836805.61246                  22816179.6874
        26.5004         22.5004
  22002389.1324    7476166.19848   5757063.15547                  22002394.7574
        28.7504         26.7504
  23388391.5934    7637677.04846   2008793.83146                  23388400.3154
        18.5004         17.0004
  22601627.6084   -1580890.33247  -1177995.07047                  22601635.2294
        27.2504         25.7504
 02  7 15 21  3  0.0030000  0  5G31G11G14G21G25
  25102036.0154    9518791.50145   7310248.75445                  25102050.1634
         7.5004          8.7504
  22816679.7264   -1128065.25547   -834731.34246                  22816686.2884
        26.2504         22.5004
  22013918.1014    7536752.74848   5804273.45247                  22013923.8904
        28.5004         26.7504
  23399726.3354    7697241.46546   2055207.63446                  23399734.9404
        18.7504         17.0004
  22601413.1554   -1582017.25247  -1178873.14547                  22601420.9174
        27.0004         25.7504
 02  7 15 21  3 15.0030000  0  5G31G11G14G21G25
  25115779.7654    9591013.74945   7366525.69745                  25115792.5424
         8.0004          9.0004
  22817210.4054   -1125277.15847   -832558.78346                  22817217.0504
        26.7504         22.5004
  22025463.7414    7597424.46548   5851550.10547                  22025469.4254
        28.7504         26.7504
  23411074.1634    7756875.84246   2101675.95846                  23411082.6164
        18.5004         16.5004
  22601220.8194   -1583026.69947  -1179659.68447                  22601228.6284
        27.2504         25.7504
 02  7 15 21  3 30.0030000  0  5G31G11G14G21G25
  25129531.2184    9663276.97245   7422834.60245                  25129543.8434
         8.7504          9.2504
  22817763.3584   -1122371.58847   -830294.69746                  22817770.2764
        27.0004         22.7504
  22037023.5544    7658172.31148   5898886.08847                  22037029.3544
        28.2504         26.5004
  23422434.0154    7816571.56846   2148192.07146                  23422442.8664
        18.5004         17.0004
  22601049.4914   -1583927.25347  -1180361.36947                  22601057.0424
        26.7504         25.7504
 02  7 15 21  3 45.0030000  0  5G31G11G14G21G25
  25143290.7334    9735586.68345   7479179.68245                  25143305.1514
         8.5004          9.2504
  22818339.7494   -1119342.40847   -827934.29246                  22818346.4764
        26.2504         22.5004
  22048599.2184    7719001.87448   5946285.73147                  22048604.7964
        29.0004         26.7504
  23433806.5694    7876334.35446   2194760.44546                  23433815.6204
        18.0004         16.7504
  22600900.0854   -1584712.76647  -1180973.42047                  22600907.8124
        27.0004         26.2504
 02  7 15 21  4  0.0030000  0  5G31G11G14G21G25
  25157060.6944    9807942.94845   7535561.07345                  25157073.3434
         9.0004          9.2504
  22818939.7494   -1116188.90247   -825476.99946                  22818946.4404
        26.2504         22.5004
  22060190.1634    7779913.38448   5993749.24147                  22060195.9294
        28.7504         26.7504
  23445192.3044    7936164.79546   2241381.53646                  23445201.1324
        18.5004         17.2504
  22600772.4834   -1585382.72247  -1181495.42247                  22600780.0934
        27.0004         25.7504
 02  7 15 21  4 15.0030000  0  5G31G11G14G21G25
  25170836.8824    9880338.42845   7591973.00845                  25170851.4644
         8.7504          9.7504
  22819562.4214   -1112917.60947   -822927.93046                  22819569.2184
        26.7504         22.7504
  22071795.5774    7840899.74748   6041271.07947                  22071801.2724
        28.5004         26.7504
  23456589.1634    7996055.97546   2288049.95446                  23456597.9794
        18.5004         16.7504
  22600665.6874   -1585943.62747  -1181932.45547                  22600673.3544
        27.2504         26.2504
 02  7 15 21  4 30.0030000  0  5G31G11G14G21G25
  25184621.7804    9952777.42045   7648418.87445                  25184636.3624
         9.2504          9.5004
  22820207.9834   -1109523.82847   -820283.41346                  22820214.4054
        26.7504         22.7504
  22083415.8274    7901965.30248   6088854.61547                  22083421.4764
        28.5004         26.5004
  23467998.1714    8056012.36146   2334769.19146                  23468006.6124
        18.5004         16.7504
  22600580.5934   -1586390.76447  -1182280.83247                  22600588.2264
        27.5004         26.0004
 02  7 15 21  4 45.0030000  0  5G31G11G14G21G25
  25198415.6324   10025263.48245   7704901.34445                  25198429.3474
         9.2504          9.5004
  22820877.8664   -1106003.27847   -817540.11946                  22820884.1124
        27.2504         22.5004
  22095052.0074    7963113.65248   6136502.67647                  22095057.6554
        28.7504         26.5004
  23479420.7334    8116038.11146   2381542.46946                  23479429.5384
        18.2504         16.2504
  22600517.8904   -1586719.73847  -1182537.13547                  22600525.4874
        27.2504         26.2504
 02  7 15 21  5  0.0030000  0  5G31G11G14G21G25
  25212217.7184   10097793.36945   7761418.04845                  25212231.1754
         9.0004          9.7504
  22821571.5464   -1102358.51747   -814700.05246                  22821577.5344
        27.0004         22.2504
  22106703.4294    8024341.82948   6184212.93247                  22106709.4874
        28.7504         26.2504
  23490855.9684    8176130.45946   2428367.64746                  23490865.0194
        18.0004         16.2504
  22600477.0384   -1586933.14047  -1182703.38347                  22600484.6364
        27.0004         26.2504
 02  7 15 21  5 15.0030000  0  5G31G11G14G21G25
  25226027.4374   10170365.72845   7817967.80545                  25226041.4564
         9.2504          9.2504
  22822288.4374   -1098590.38647   -811763.80946                  22822294.7294
        26.5004         22.7504
  22118369.7334    8085648.56948   6231984.42047                  22118375.7224
        28.2504         26.2504
  23502303.5774    8236288.47346   2475243.98946                  23502312.6404
        17.5004         15.7504
  22600458.4294   -1587031.97847  -1182780.35647                  22600466.0154
        27.0004         26.0004
 02  7 15 21  5 30.0030000  0  5G31G11G14G21G25
  25239845.7964   10242978.53545   7874549.08645                  25239859.1834
         9.7504          9.7504
  22823028.7884   -1094700.19747   -808732.49046                  22823035.4684
        26.5004         23.0004
  22130050.7964    8147032.02848   6279815.67347                  22130056.7264
        28.0004         26.2504
  23513763.7964    8296510.56746   2522170.25146                  23513773.1044
        18.2504         16.5004
  22600461.0464   -1587017.34347  -1182768.91047                  22600468.6084
        27.0004         26.2504
 02  7 15 21  5 45.0030000  0  5G31G11G14G21G25
  25253671.0224   10315631.76745   7931161.86845                  25253684.4094
         9.5004          9.2504
  22823792.3274   -1090687.31347   -805605.55046                  22823799.2804
        26.5004         22.7504
  22141746.0624    8208492.25848   6327706.75347                  22141752.0504
        28.2504         26.2504
  23525235.8974    8356797.00646   2569146.67446                  23525244.6674
        18.5004         16.5004
  22600485.4684   -1586888.60347  -1182668.54847                  22600493.1124
        27.2504         26.5004
 02  7 15 21  6  0.0030000  0  5G31G11G14G21G25
  25267505.1014   10388325.28845   7987806.07145                  25267519.6244
         9.7504          9.5004
  22824579.4444   -1086551.28447   -802382.65746                  22824586.3864
        26.7504         23.0004
  22153456.1944    8270029.39648   6375657.77047                  22153462.3354
        28.2504         26.5004
  23536720.1474    8417147.88546   2616173.29746                  23536728.5194
        18.5004         16.0004
  22600532.1084   -1586645.36047  -1182478.96747                  22600539.6714
        27.7504         26.5004
 02  7 15 21  6 15.0030000  0  5G31G11G14G21G25
  25281344.4994   10461056.17745   8044479.34445                  25281357.7334
         9.2504          9.0004
  22825389.6944   -1082294.35047   -799065.54946                  22825396.7534
        27.0004         23.0004
  22165180.3514    8331640.50047   6423666.41447                  22165186.3274
        27.7504         26.0004
  23548216.8124    8477560.82446   2663248.27946                  23548225.0544
        18.2504         16.2504
  22600599.7654   -1586289.83247  -1182201.88847                  22600607.5624
        27.7504         26.7504
 02  7 15 21  6 30.0030000  0  5G31G11G14G21G25
  25295192.3904   10533824.65745   8101181.92345                  25295206.4334
         9.0004          9.7504
  22826222.7494   -1077915.96247   -795653.81146                  22826229.2654
        26.7504         23.0004
  22176918.8044    8393325.85548   6471732.91647                  22176924.9794
        28.0004         26.2504
  23559724.6324    8538036.37246   2710372.05946                  23559733.1904
        17.7504         15.7504
  22600688.6874   -1585821.30047  -1181836.75547                  22600696.1674
        27.2504         26.7504
 02  7 15 21  6 45.0030000  0  5G31G11G14G21G25
  25309046.5074   10606627.77545   8157911.47045                  25309060.3624
         9.5004          9.2504
  22827078.6554   -1073418.11647   -792148.99346                  22827084.8194
        26.7504         22.7504
  22188670.6164    8455082.87248   6519855.25547                  22188676.6874
        28.0004         26.2504
  23571244.2724    8598572.10246   2757542.71846                  23571252.7724
        17.7504         16.0004
  22600799.0384   -1585241.87348  -1181385.21247                  22600806.5774
        28.0004         27.0004
 02  7 15 21  7  0.0030000  0  5G31G11G14G21G25
  25322909.3664   10679474.91345   8214675.34545                  25322923.0584
         9.5004          9.5004
  22827959.0154   -1068790.89447   -788543.35046                  22827965.5194
        26.2504         22.7504
  22200437.9444    8516920.92948   6568040.74447                  22200444.0154
        28.0004         26.0004
  23582777.2104    8659177.68346   2804767.80646                  23582786.1324
        18.5004         16.2504
  22600932.2804   -1584541.72048  -1180839.59547                  22600939.8194
        28.0004         27.0004
 02  7 15 21  7 15.0030000  0  5G31G11G14G21G25
  25336778.3744   10752359.78245   8271468.64945                  25336792.1124
         9.2504          9.7504
  22828863.2334   -1064039.97347   -784841.32146                  22828869.6444
        26.0004         22.7504
  22212219.7724    8578833.87548   6616284.58447                  22212225.8664
        28.0004         26.2504
  23594322.2414    8719847.53846   2852042.98746                  23594330.8354
        19.5004         16.5004
  22601087.3124   -1583726.44748  -1180204.28147                  22601094.8864
        28.0004         27.0004
 02  7 15 21  7 30.0030000  0  5G31G11G14G21G25
  25350654.3664   10825279.56845   8328289.10745                  25350666.8974
         9.5004          9.7504
  22829790.1554   -1059167.54747   -781044.60746                  22829796.8824
        26.5004         23.0004
  22224015.1244    8640819.11747   6664584.76847                  22224021.2294
        27.7504         26.2504
  23605879.1474    8780579.16046   2899366.30346                  23605887.8584
        18.2504         16.0004
  22601263.9054   -1582798.33147  -1179481.03147                  22601271.2924
        27.7504         27.0004
 02  7 15 21  7 45.0030000  0  6G20G31G11G14G21G25
  25295974.4604      -1453.76755
         8.0004
  25364538.0624   10898236.04245   8385138.19645                  25364550.8154
         9.5004          9.2504
  22830741.2574   -1054171.25647   -777151.37946                  22830748.1874
        27.2504         23.5004
  22235824.8434    8702878.56548   6712942.77147                  22235831.0894
        28.0004         26.2504
  23617447.8044    8841374.50546   2946739.24946                  23617456.6204
        18.0004         16.0004
  22601462.5304   -1581754.88348  -1178667.91847                  22601470.1874
        28.0004         27.2504
 02  7 15 21  8  0.0030000  0  6G20G31G11G14G21G25
  25293901.3744     -12346.74445
         7.5004
  25378428.8904   10971235.60745   8442020.85245                  25378441.6084
         9.7504         10.0004
  22831716.7184   -1049043.90247   -773156.02846                  22831723.5034
        27.7504         23.0004
  22247649.5934    8765018.81647   6761363.73747                  22247655.9094
        27.7504         26.0004
  23629030.5224    8902240.70346   2994167.41246                  23629039.2804
        17.5004         16.0004
  22601684.1714   -1580588.84748  -1177759.27847                  22601691.7574
        28.2504         27.5004
 02  7 15 21  8 15.0030000  0  6G20G31G11G14G21G25
  25291830.0464     -23230.65845
         7.7504
  25392327.9294   11044270.07145   8498930.69945                  25392340.9764
         9.7504          9.5004
  22832715.8584   -1043793.27247   -769064.61446                  22832722.4564
        26.7504         23.0004
  22259488.3194    8827231.59647   6809841.21447                  22259494.4954
        27.7504         26.2504
  23640625.1244    8963169.78846   3041644.59646                  23640634.4334
        17.5004         15.7504
  22601928.1404   -1579308.10348  -1176761.25947                  22601935.7494
        28.0004         27.2504
 02  7 15 21  8 30.0030000  0  6G20G31G11G14G21G25
  25289761.6404     -34103.01145
         9.0004
  25406232.1164   11117341.43145   8555869.29645                  25406245.9604
         9.2504          9.2504
  22833739.1084   -1038416.65547   -764875.03646                  22833745.5424
        26.5004         22.7504
  22271341.3044    8889519.19648   6858376.99747                  22271347.2924
        28.0004         26.2504
  23652232.1554    9024164.12846   3089172.61246                  23652240.6674
        18.2504         15.7504
  22602194.0304   -1577909.98248  -1175671.78247                  22602201.5934
        28.5004         27.5004
 02  7 15 21  8 45.0030000  0  6G20G31G11G14G21G25
  25287694.2264     -44966.46445     -2255.88955                  25287704.8584
         9.2504          8.5004
  25420144.4214   11190446.48445   8612834.15145                  25420158.4054
         9.2504          8.7504
  22834785.6874   -1032916.63647   -760589.29446                  22834792.1444
        26.0004         23.0004
  22283207.8664    8951878.58048   6906968.70747                  22283213.8544
        28.0004         25.7504
  23663851.0154    9085221.00246   3136749.36146                  23663859.6204
        19.0004         16.2504
  22602481.9834   -1576397.03948  -1174492.82647                  22602489.6874
        28.2504         27.7504
 02  7 15 21  9  0.0030000  0  6G20G31G11G14G21G25
  25285629.0224     -55818.07145    -10711.66445                  25285638.6594
         9.2504          8.5004
  25434062.7654   11263587.80045   8669827.22745                  25434077.8974
         9.2504          9.0004
  22835856.4834   -1027290.03147   -756204.90946                  22835862.9524
        26.5004         23.0004
  22295088.5304    9014312.41748   6955618.44847                  22295094.4834
        28.0004         26.0004
  23675482.1794    9146343.40746   3184377.17846                  23675490.8664
        18.7504         16.2504
  22602792.1474   -1574766.16948  -1173221.97847                  22602799.5934
        29.0004         27.7504
 02  7 15 21  9 15.0030000  0  5G20G11G14G21G25
  25283566.8974     -66658.32745    -19158.54645                  25283578.8904
         9.5004          8.2504
  22836951.1634   -1021537.12147   -751722.11146                  22836957.5264
        26.5004         22.7504
  22306983.2334    9076819.95448   7004325.61447                  22306989.4334
        28.2504         26.0004
  23687125.7264    9207530.86046   3232055.66046                  23687134.2844
        18.2504         16.0004
  22603125.0304   -1573017.56148  -1171859.38947                  22603132.6874
        28.5004         27.7504
 02  7 15 21  9 30.0030000  0  5G20G11G14G21G25
  25281505.6554     -77487.79745    -27597.05645                  25281516.0194
         9.5004          9.0004
  22838069.7414   -1015658.50747   -747141.36346                  22838076.1044
        27.0004         23.0004
  22318892.0694    9139400.24948   7053089.46647                  22318898.1634
        28.0004         26.0004
  23698781.2964    9268782.62946   3279784.26646                  23698789.9834
        17.5004         15.7504
  22603480.0074   -1571151.71548  -1170405.44647                  22603487.5114
        28.7504         27.5004
 02  7 15 21  9 45.0030000  0  5G20G11G14G21G25
  25279447.4604     -88302.77345    -36024.26845                  25279458.9134
         8.7504          9.0004
  22839212.9914   -1009650.30147   -742459.63546                  22839219.4954
        26.7504         23.2504
  22330815.2884    9202056.60748   7101912.59447                  22330821.6754
        28.0004         26.0004
  23710450.3194    9330102.35946   3327565.84246                  23710459.1944
        17.7504         15.5004
  22603858.0854   -1569164.65148  -1168857.04547                  22603865.7534
        28.2504         27.5004
 02  7 15 21 10  0.0030000  0  5G20G11G14G21G25
  25277389.5544     -99113.62045    -44448.20745                  25277401.7574
         8.7504          8.7504
  22840379.0624   -1003522.51247   -737684.72846                  22840385.6944
        26.7504         23.2504
  22342750.6404    9264778.47748   7150786.76747                  22342756.5934
        28.2504         26.0004
  23722129.7964    9391479.51646   3375392.15146                  23722138.8824
        18.2504         15.7504
  22604257.2574   -1567066.57848  -1167222.14347                  22604264.8434
        28.5004         28.0004
 02  7 15 21 10 15.0030000  0  5G20G11G14G21G25
  25275335.3904    -109912.80845    -52863.09045                  25275346.8194
         9.2504          9.5004
  22841569.4214    -997267.43647   -732810.63646                  22841575.9604
        26.7504         23.2504
  22354700.2804    9327573.09148   7199717.61247                  22354706.1284
        28.2504         25.7504
  23733822.1714    9452921.88746   3423269.29946                  23733830.8124
        18.0004         15.7504
  22604679.2334   -1564849.80348  -1165494.75147                  22604686.7724
        28.7504         27.5004
 02  7 15 21 10 30.0030000  0  5G20G11G14G21G25
  25273281.9524    -120704.85845    -61272.40645                  25273293.0194
         9.7504         10.2504
  22842783.3974    -990889.56347   -727840.85546                  22842790.0654
        27.0004         23.2504
  22366662.5304    9390435.51948   7248701.31747                  22366668.5654
        28.0004         25.7504
  23745525.8044    9514424.71746   3471193.53646                  23745534.7494
        17.5004         15.7504
  22605122.5544   -1562518.85848  -1163678.38547                  22605130.0464
        28.5004         27.7504
 02  7 15 21 10 45.0030000  0  5G20G11G14G21G25
  25271229.5384    -131485.55045    -69672.86245                  25271241.3434
         9.5004          9.7504
  22844021.2104    -984384.43347   -722771.90846                  22844027.6084
        27.0004         23.2504
  22378638.4524    9453369.80948   7297741.02047                  22378644.4994
        28.5004         26.0004
  23757241.6874    9575992.26846   3519168.20846                  23757251.3234
        17.5004         15.7504
  22605588.8434   -1560069.12148  -1161769.46447                  22605596.2654
        28.5004         27.5004
 02  7 15 21 11  0.0030000  0  5G20G11G14G21G25
  25269179.3514    -142258.82645    -78067.55645                  25269189.5154
         9.2504          9.2504
  22845282.3824    -977755.88947   -717606.80646                  22845288.8154
        26.7504         23.2504
  22390627.4294    9516371.52348   7346833.25047                  22390633.4874
        28.2504         26.0004
  23768969.2104    9637620.52946   3567190.18046                  23768978.3544
        17.7504         16.0004
  22606076.8354   -1557504.43348  -1159770.96847                  22606084.3044
        28.5004         27.2504
 02  7 15 21 11 15.0030000  0  5G20G11G14G21G25
  25267131.5154    -153024.24145    -86456.18045                  25267140.2374
         9.7504          8.2504
  22846567.3824    -971003.37047   -712345.09446                  22846573.8744
        27.0004         23.2504
  22402629.0544    9579440.91848   7395978.22347                  22402635.2064
        28.2504         26.0004
  23780708.8354    9699309.86646   3615259.75046                  23780717.5344
        18.2504         15.7504
  22606586.7334   -1554824.26748  -1157682.48147                  22606594.2724
        28.0004         27.5004
 02  7 15 21 11 30.0030000  0  5G20G11G14G21G25
  25265085.5854    -163773.87645    -94832.46245                  25265096.4054
         9.7504          8.2504
  22847877.3974    -964118.83547   -706980.51246                  22847884.1594
        26.7504         23.2504
  22414645.0934    9642585.46748   7445181.75647                  22414651.1404
        28.2504         25.7504
  23792460.7334    9761068.02546   3663382.95446                  23792469.0464
        18.5004         15.7504
  22607120.3194   -1552020.53748  -1155497.71847                  22607127.7534
        28.2504         27.2504
 02  7 15 21 11 45.0030000  0  5G20G11G14G21G25
  25263042.6404    -174508.62645   -103197.20045                  25263051.8194
         9.2504          8.5004
  22849212.4764    -957103.00747   -701513.62746                  22849218.9444
        26.7504         23.2504
  22426675.1474    9705803.99648   7494442.93447                  22426680.9724
        28.5004         25.7504
  23804225.8584    9822894.03046   3711559.03046                  23804234.3944
        18.5004         15.5004
  22607677.1324   -1549094.04848  -1153217.29747                  22607684.6124
        28.2504         27.5004
 02  7 15 21 12  0.0030000  0  5G20G11G14G21G25
  25261000.8274    -185234.38345   -111554.85145                  25261010.9794
         9.2504          9.0004
  22850571.4134    -949961.55547   -695948.85346                  22850577.9054
        26.7504         23.2504
  22438718.2104    9769090.33948   7543756.95947                  22438724.5854
        28.5004         26.0004
  23816002.4054    9884782.11546   3759783.47646                  23816010.7294
        18.0004         15.2504
  22608256.2654   -1546050.39748  -1150845.58047                  22608263.6634
        28.2504         27.2504
 02  7 15 21 12 15.0030000  0  5G20G11G14G21G25
  25258963.6474    -195943.89745   -119899.86045                  25258974.8664
         9.5004          9.5004
  22851955.6554    -942687.18947   -690280.50546                  22851962.1834
        26.2504         23.0004
  22450775.3044    9832451.39048   7593129.20147                  22450781.4444
        28.0004         25.7504
  23827792.5854    9946739.33046   3808061.78946                  23827801.0624
        17.0004         15.2504
  22608858.9834   -1542882.36248  -1148376.94547                  22608866.3354
        28.5004         27.2504
 02  7 15 21 12 30.0040000  0  5G20G11G14G21G25
  25256926.7074    -206645.41545   -128238.64645                  25256937.8204
         9.5004         10.0004
  22853363.8634    -935286.69247   -684513.87446                  22853370.2384
        26.7504         23.0004
  22462846.2464    9895883.67148   7642556.94547                  22462852.4224
        28.2504         25.7504
  23839595.0904   10008762.32746   3856391.36246                  23839603.6724
        17.5004         15.7504
  22609484.2234   -1539596.86648  -1145816.77047                  22609491.5624
        28.5004         27.2504
 02  7 15 21 12 45.0040000  0  5G20G11G14G21G25
  25254892.7074    -217334.76245   -136567.93245                  25254904.1604
         9.5004          9.7504
  22854796.6054    -927758.20247   -678647.51646                  22854803.1214
        26.5004         23.2504
  22474929.4264    9959380.91448   7692035.30047                  22474935.6844
        28.7504         26.0004
  23851409.3324   10070845.31346   3904767.65646                  23851417.6444
        18.0004         15.2504
  22610132.2234   -1536191.59148  -1143163.27747                  22610139.4924
        28.5004         27.2504
 02  7 15 21 13  0.0040000  0  5G20G11G14G21G25
  25252861.0194    -228013.51545   -144888.95145                  25252871.4304
        11.0004          9.5004
  22856253.4414    -920101.94447   -672681.58346                  22856259.7814
        26.5004         23.2504
  22487025.4264   10022946.37148   7741566.82347                  22487031.5314
        28.5004         25.7504
  23863235.8554   10132991.83046   3953193.48546                  23863244.6724
        18.0004         15.7504
  22610803.0904   -1532667.04448  -1140416.83147                  22610810.5234
        28.2504         27.0004
 02  7 15 21 13 15.0040000  0  5G20G11G14G21G25
  25250830.9734    -238681.49445   -153201.63245                  25250839.9884
        11.0004         10.0004
  22857734.7624    -912317.59847   -666615.85346                  22857741.4884
        27.0004         23.2504
  22499134.6214   10086579.82148   7791151.31547                  22499140.7734
        28.0004         25.7504
  23875073.4414   10195201.67646   4001668.65446                  23875082.6914
        17.7504         15.5004
  22611496.0984   -1529022.90348  -1137577.20647                  22611503.4144
        28.0004         27.0004
 02  7 15 21 13 30.0040000  0  5G20G11G14G21G25
  25248802.6054    -249339.28045   -161506.40245                  25248810.4964
         9.7504          9.0004
  22859240.4264    -904405.66547   -660450.69946                  22859246.8944
        27.5004         23.5004
  22511256.1844   10150280.39948   7840788.11546                  22511262.3944
        28.2504         25.5004
  23886923.5824   10257474.31346   4050192.74246                  23886932.6564
        17.0004         15.0004
  22612212.2774   -1525259.68348  -1134644.78347                  22612219.5474
        28.2504         27.0004
 02  7 15 21 13 45.0040000  0  5G20G11G14G21G25
  25246776.0824    -259987.58445   -169803.70245                  25246786.4804
         9.0004          8.2504
  22860770.1294    -896366.70447   -654186.56946                  22860776.6444
        27.7504         23.5004
  22523390.5744   10214047.01248   7890476.37646                  22523396.9024
        28.0004         25.5004
  23898785.5044   10319808.93346   4098765.13446                  23898794.9304
        16.7504         15.2504
  22612951.1214   -1521377.75248  -1131619.86247                  22612958.5784
        28.2504         27.0004
